Time,TemperatureF,DewpointF,PressureIn,WindDirection,WindDirectionDegrees,WindSpeedMPH,WindSpeedGustMPH,Humidity,HourlyPrecipIn,Conditions,Clouds,dailyrainin,SoftwareType,DateUTC
2013-03-24 00:02:00,24.0,18.7,30.17,NNW,327,4.0,4.0,80,0.00,,,0.00,Wunderground v.1.15,2013-03-24 05:02:00,
2013-03-24 00:03:00,24.0,18.7,30.17,NW,317,2.0,4.0,80,0.00,,,0.00,Wunderground v.1.15,2013-03-24 05:03:00,
2013-03-24 00:07:00,23.9,18.6,30.17,NW,306,3.0,6.0,80,0.00,,,0.00,Wunderground v.1.15,2013-03-24 05:07:00,
2013-03-24 00:11:00,23.9,18.6,30.17,NW,317,2.0,4.0,80,0.00,,,0.00,Wunderground v.1.15,2013-03-24 05:11:00,
2013-03-24 00:12:00,23.9,18.6,30.17,NW,318,4.0,4.0,80,0.00,,,0.00,Wunderground v.1.15,2013-03-24 05:12:00,
2013-03-24 00:13:00,23.9,18.6,30.17,NW,322,3.0,4.0,80,0.00,,,0.00,Wunderground v.1.15,2013-03-24 05:13:00,
2013-03-24 00:17:00,23.9,18.6,30.17,NW,319,4.0,4.0,80,0.00,,,0.00,Wunderground v.1.15,2013-03-24 05:17:00,
2013-03-24 00:19:00,23.8,18.2,30.17,NW,325,5.0,5.0,79,0.00,,,0.00,Wunderground v.1.15,2013-03-24 05:19:00,
2013-03-24 00:21:00,23.8,18.2,30.16,NNW,329,4.0,4.0,79,0.00,,,0.00,Wunderground v.1.15,2013-03-24 05:21:00,
2013-03-24 00:24:00,23.8,18.2,30.16,NNW,330,4.0,4.0,79,0.00,,,0.00,Wunderground v.1.15,2013-03-24 05:24:00,
2013-03-24 00:25:00,23.8,18.2,30.16,NW,304,4.0,4.0,79,0.00,,,0.00,Wunderground v.1.15,2013-03-24 05:25:00,
2013-03-24 00:26:00,23.7,18.1,30.16,NW,317,2.0,4.0,79,0.00,,,0.00,Wunderground v.1.15,2013-03-24 05:26:00,
2013-03-24 00:29:00,23.7,18.1,30.16,NNW,328,5.0,5.0,79,0.00,,,0.00,Wunderground v.1.15,2013-03-24 05:29:00,
2013-03-24 00:30:00,23.7,18.1,30.16,NW,321,3.0,4.0,79,0.00,,,0.00,Wunderground v.1.15,2013-03-24 05:30:00,
2013-03-24 00:32:00,23.7,18.1,30.16,NW,313,3.0,4.0,79,0.00,,,0.00,Wunderground v.1.15,2013-03-24 05:32:00,
2013-03-24 00:33:00,23.7,18.1,30.16,NW,308,2.0,4.0,79,0.00,,,0.00,Wunderground v.1.15,2013-03-24 05:33:00,
2013-03-24 00:39:00,23.6,18.0,30.16,NW,322,4.0,4.0,79,0.00,,,0.00,Wunderground v.1.15,2013-03-24 05:39:00,
2013-03-24 00:41:00,23.6,18.0,30.15,NW,319,5.0,5.0,79,0.00,,,0.00,Wunderground v.1.15,2013-03-24 05:41:00,
2013-03-24 00:45:00,23.5,18.2,30.16,NW,325,4.0,5.0,80,0.00,,,0.00,Wunderground v.1.15,2013-03-24 05:45:00,
2013-03-24 00:46:00,23.5,17.9,30.16,NW,323,3.0,5.0,79,0.00,,,0.00,Wunderground v.1.15,2013-03-24 05:46:00,
2013-03-24 00:47:00,23.5,17.9,30.15,NW,323,4.0,5.0,79,0.00,,,0.00,Wunderground v.1.15,2013-03-24 05:47:00,
2013-03-24 00:51:00,23.4,17.8,30.15,NW,320,2.0,4.0,79,0.00,,,0.00,Wunderground v.1.15,2013-03-24 05:51:00,
2013-03-24 00:52:00,23.4,18.1,30.15,NNW,329,2.0,4.0,80,0.00,,,0.00,Wunderground v.1.15,2013-03-24 05:52:00,
2013-03-24 00:56:00,23.4,18.1,30.15,NW,320,6.0,6.0,80,0.00,,,0.00,Wunderground v.1.15,2013-03-24 05:56:00,
2013-03-24 00:57:00,23.3,18.0,30.15,NW,324,4.0,6.0,80,0.00,,,0.00,Wunderground v.1.15,2013-03-24 05:57:00,
2013-03-24 01:02:00,23.3,18.0,30.15,NW,318,4.0,4.0,80,0.00,,,0.00,Wunderground v.1.15,2013-03-24 06:02:00,
2013-03-24 01:03:00,23.3,18.0,30.15,NW,318,4.0,4.0,80,0.00,,,0.00,Wunderground v.1.15,2013-03-24 06:03:00,
2013-03-24 01:04:00,23.3,18.0,30.15,NNW,329,4.0,4.0,80,0.00,,,0.00,Wunderground v.1.15,2013-03-24 06:04:00,
2013-03-24 01:07:00,23.2,17.9,30.15,NW,316,3.0,5.0,80,0.00,,,0.00,Wunderground v.1.15,2013-03-24 06:07:00,
2013-03-24 01:08:00,23.2,17.9,30.15,NNW,327,2.0,5.0,80,0.00,,,0.00,Wunderground v.1.15,2013-03-24 06:08:00,
2013-03-24 01:13:00,23.2,18.2,30.15,NW,316,2.0,4.0,81,0.00,,,0.00,Wunderground v.1.15,2013-03-24 06:13:00,
2013-03-24 01:16:00,23.1,18.1,30.15,NW,319,4.0,4.0,81,0.00,,,0.00,Wunderground v.1.15,2013-03-24 06:16:00,
2013-03-24 01:19:00,23.1,17.8,30.15,NNW,329,3.0,3.0,80,0.00,,,0.00,Wunderground v.1.15,2013-03-24 06:19:00,
2013-03-24 01:20:00,23.1,18.1,30.15,NW,318,2.0,3.0,81,0.00,,,0.00,Wunderground v.1.15,2013-03-24 06:20:00,
2013-03-24 01:23:00,23.1,18.1,30.15,NW,323,1.0,3.0,81,0.00,,,0.00,Wunderground v.1.15,2013-03-24 06:23:00,
2013-03-24 01:24:00,23.1,18.1,30.15,NNW,335,6.0,6.0,81,0.00,,,0.00,Wunderground v.1.15,2013-03-24 06:24:00,
2013-03-24 01:25:00,23.0,17.7,30.15,NW,319,4.0,6.0,80,0.00,,,0.00,Wunderground v.1.15,2013-03-24 06:25:00,
2013-03-24 01:30:00,23.0,18.0,30.15,NW,319,2.0,3.0,81,0.00,,,0.00,Wunderground v.1.15,2013-03-24 06:30:00,
2013-03-24 01:33:00,23.0,18.0,30.15,NW,317,3.0,4.0,81,0.00,,,0.00,Wunderground v.1.15,2013-03-24 06:33:00,
2013-03-24 01:34:00,23.0,18.0,30.15,NW,321,2.0,5.0,81,0.00,,,0.00,Wunderground v.1.15,2013-03-24 06:34:00,
2013-03-24 01:38:00,23.0,18.3,30.15,NW,318,3.0,5.0,82,0.00,,,0.00,Wunderground v.1.15,2013-03-24 06:38:00,
2013-03-24 01:40:00,23.0,18.3,30.15,NW,323,3.0,3.0,82,0.00,,,0.00,Wunderground v.1.15,2013-03-24 06:40:00,
2013-03-24 01:43:00,23.0,18.3,30.15,NW,323,1.0,3.0,82,0.00,,,0.00,Wunderground v.1.15,2013-03-24 06:43:00,
2013-03-24 01:45:00,23.0,18.6,30.15,NNW,329,3.0,3.0,83,0.00,,,0.00,Wunderground v.1.15,2013-03-24 06:45:00,
2013-03-24 01:46:00,23.0,18.6,30.15,NW,316,3.0,3.0,83,0.00,,,0.00,Wunderground v.1.15,2013-03-24 06:46:00,
2013-03-24 01:47:00,23.0,18.6,30.15,NW,321,2.0,3.0,83,0.00,,,0.00,Wunderground v.1.15,2013-03-24 06:47:00,
2013-03-24 01:51:00,23.0,18.3,30.15,NW,323,4.0,4.0,82,0.00,,,0.00,Wunderground v.1.15,2013-03-24 06:51:00,
2013-03-24 01:53:00,23.0,18.3,30.15,NW,323,4.0,4.0,82,0.00,,,0.00,Wunderground v.1.15,2013-03-24 06:53:00,
2013-03-24 01:56:00,23.0,18.3,30.15,NW,326,3.0,4.0,82,0.00,,,0.00,Wunderground v.1.15,2013-03-24 06:56:00,
2013-03-24 01:58:00,23.0,18.3,30.16,NNW,327,4.0,5.0,82,0.00,,,0.00,Wunderground v.1.15,2013-03-24 06:58:00,
2013-03-24 02:01:00,23.0,18.3,30.15,NNW,331,2.0,4.0,82,0.00,,,0.00,Wunderground v.1.15,2013-03-24 07:01:00,
2013-03-24 02:02:00,23.1,18.4,30.15,NNW,332,5.0,5.0,82,0.00,,,0.00,Wunderground v.1.15,2013-03-24 07:02:00,
2013-03-24 02:04:00,23.1,18.7,30.15,NW,322,2.0,5.0,83,0.00,,,0.00,Wunderground v.1.15,2013-03-24 07:04:00,
2013-03-24 02:07:00,23.1,18.7,30.15,NNW,327,2.0,6.0,83,0.00,,,0.00,Wunderground v.1.15,2013-03-24 07:07:00,
2013-03-24 02:09:00,23.1,18.7,30.15,NNW,327,3.0,6.0,83,0.00,,,0.00,Wunderground v.1.15,2013-03-24 07:09:00,
2013-03-24 02:12:00,23.1,18.7,30.15,North,350,3.0,5.0,83,0.00,,,0.00,Wunderground v.1.15,2013-03-24 07:12:00,
2013-03-24 02:14:00,23.1,18.7,30.15,NW,317,3.0,5.0,83,0.00,,,0.00,Wunderground v.1.15,2013-03-24 07:14:00,
2013-03-24 02:17:00,23.1,18.7,30.15,NW,323,4.0,5.0,83,0.00,,,0.00,Wunderground v.1.15,2013-03-24 07:17:00,
2013-03-24 02:19:00,23.1,18.7,30.15,NW,321,1.0,5.0,83,0.00,,,0.00,Wunderground v.1.15,2013-03-24 07:19:00,
2013-03-24 02:22:00,23.1,18.7,30.15,NW,321,1.0,3.0,83,0.00,,,0.00,Wunderground v.1.15,2013-03-24 07:22:00,
2013-03-24 02:24:00,23.1,19.0,30.15,West,281,4.0,6.0,84,0.00,,,0.00,Wunderground v.1.15,2013-03-24 07:24:00,
2013-03-24 02:25:00,23.1,19.0,30.15,West,281,0.0,6.0,84,0.00,,,0.00,Wunderground v.1.15,2013-03-24 07:25:00,
2013-03-24 02:27:00,23.1,18.7,30.15,NW,325,3.0,6.0,83,0.00,,,0.00,Wunderground v.1.15,2013-03-24 07:27:00,
2013-03-24 02:28:00,23.1,18.7,30.15,NW,309,2.0,6.0,83,0.00,,,0.00,Wunderground v.1.15,2013-03-24 07:28:00,
2013-03-24 02:29:00,23.1,18.7,30.15,NNW,327,5.0,6.0,83,0.00,,,0.00,Wunderground v.1.15,2013-03-24 07:29:00,
2013-03-24 02:30:00,23.1,18.7,30.15,NW,321,5.0,5.0,83,0.00,,,0.00,Wunderground v.1.15,2013-03-24 07:30:00,
2013-03-24 02:32:00,23.1,18.7,30.15,NW,325,4.0,5.0,83,0.00,,,0.00,Wunderground v.1.15,2013-03-24 07:32:00,
2013-03-24 02:33:00,23.1,19.0,30.15,NNW,331,2.0,5.0,84,0.00,,,0.00,Wunderground v.1.15,2013-03-24 07:33:00,
2013-03-24 02:34:00,23.1,19.0,30.15,NW,319,3.0,5.0,84,0.00,,,0.00,Wunderground v.1.15,2013-03-24 07:34:00,
2013-03-24 02:36:00,23.1,19.0,30.15,NW,319,1.0,5.0,84,0.00,,,0.00,Wunderground v.1.15,2013-03-24 07:36:00,
2013-03-24 02:37:00,23.1,19.0,30.15,NW,319,2.0,5.0,84,0.00,,,0.00,Wunderground v.1.15,2013-03-24 07:37:00,
2013-03-24 02:38:00,23.1,19.0,30.15,NW,312,5.0,5.0,84,0.00,,,0.00,Wunderground v.1.15,2013-03-24 07:38:00,
2013-03-24 02:41:00,23.1,19.0,30.15,NW,316,2.0,5.0,84,0.00,,,0.00,Wunderground v.1.15,2013-03-24 07:41:00,
2013-03-24 02:42:00,23.1,19.0,30.15,NW,319,2.0,5.0,84,0.00,,,0.00,Wunderground v.1.15,2013-03-24 07:42:00,
2013-03-24 02:43:00,23.1,19.0,30.15,NNW,327,4.0,6.0,84,0.00,,,0.00,Wunderground v.1.15,2013-03-24 07:43:00,
2013-03-24 02:47:00,23.1,19.0,30.15,NNW,329,4.0,6.0,84,0.00,,,0.00,Wunderground v.1.15,2013-03-24 07:47:00,
2013-03-24 02:48:00,23.1,19.0,30.15,NNW,327,3.0,6.0,84,0.00,,,0.00,Wunderground v.1.15,2013-03-24 07:48:00,
2013-03-24 02:52:00,23.1,19.0,30.15,NW,325,3.0,5.0,84,0.00,,,0.00,Wunderground v.1.15,2013-03-24 07:52:00,
2013-03-24 02:53:00,23.1,19.0,30.15,NNW,334,1.0,6.0,84,0.00,,,0.00,Wunderground v.1.15,2013-03-24 07:53:00,
2013-03-24 02:54:00,23.1,19.0,30.14,NNW,333,2.0,6.0,84,0.00,,,0.00,Wunderground v.1.15,2013-03-24 07:54:00,
2013-03-24 02:57:00,23.1,19.3,30.14,NW,317,3.0,6.0,85,0.00,,,0.00,Wunderground v.1.15,2013-03-24 07:57:00,
2013-03-24 02:58:00,23.1,19.0,30.14,NW,321,4.0,6.0,84,0.00,,,0.00,Wunderground v.1.15,2013-03-24 07:58:00,
2013-03-24 02:59:00,23.1,19.0,30.14,NW,323,1.0,3.0,84,0.00,,,0.00,Wunderground v.1.15,2013-03-24 07:59:00,
2013-03-24 03:02:00,23.1,19.0,30.14,NW,325,4.0,6.0,84,0.00,,,0.00,Wunderground v.1.15,2013-03-24 08:02:00,
2013-03-24 03:03:00,23.1,19.0,30.14,NW,325,4.0,6.0,84,0.00,,,0.00,Wunderground v.1.15,2013-03-24 08:03:00,
2013-03-24 03:04:00,23.1,19.3,30.14,NW,326,3.0,6.0,85,0.00,,,0.00,Wunderground v.1.15,2013-03-24 08:04:00,
2013-03-24 03:08:00,23.1,19.3,30.14,NW,315,2.0,6.0,85,0.00,,,0.00,Wunderground v.1.15,2013-03-24 08:08:00,
2013-03-24 03:10:00,23.1,19.3,30.14,NW,315,2.0,3.0,85,0.00,,,0.00,Wunderground v.1.15,2013-03-24 08:10:00,
2013-03-24 03:13:00,23.1,19.3,30.14,NW,322,2.0,5.0,85,0.00,,,0.00,Wunderground v.1.15,2013-03-24 08:13:00,
2013-03-24 03:14:00,23.1,19.3,30.14,NW,324,1.0,5.0,85,0.00,,,0.00,Wunderground v.1.15,2013-03-24 08:14:00,
2013-03-24 03:15:00,23.1,19.3,30.14,NE,46,2.0,5.0,85,0.00,,,0.00,Wunderground v.1.15,2013-03-24 08:15:00,
2013-03-24 03:18:00,23.1,19.3,30.14,NW,311,3.0,5.0,85,0.00,,,0.00,Wunderground v.1.15,2013-03-24 08:18:00,
2013-03-24 03:19:00,23.1,19.3,30.14,NW,311,0.0,5.0,85,0.00,,,0.00,Wunderground v.1.15,2013-03-24 08:19:00,
2013-03-24 03:20:00,23.1,19.3,30.14,NW,313,1.0,2.0,85,0.00,,,0.00,Wunderground v.1.15,2013-03-24 08:20:00,
2013-03-24 03:23:00,23.1,19.5,30.14,NW,322,0.0,4.0,86,0.00,,,0.00,Wunderground v.1.15,2013-03-24 08:23:00,
2013-03-24 03:24:00,23.1,19.5,30.14,NW,313,2.0,4.0,86,0.00,,,0.00,Wunderground v.1.15,2013-03-24 08:24:00,
2013-03-24 03:25:00,23.1,19.5,30.14,West,276,4.0,6.0,86,0.00,,,0.00,Wunderground v.1.15,2013-03-24 08:25:00,
2013-03-24 03:26:00,23.1,19.5,30.14,NW,324,3.0,6.0,86,0.00,,,0.00,Wunderground v.1.15,2013-03-24 08:26:00,
2013-03-24 03:29:00,23.1,19.5,30.14,NW,325,4.0,6.0,86,0.00,,,0.00,Wunderground v.1.15,2013-03-24 08:29:00,
2013-03-24 03:30:00,23.1,19.5,30.14,NW,322,3.0,3.0,86,0.00,,,0.00,Wunderground v.1.15,2013-03-24 08:30:00,
2013-03-24 03:32:00,23.0,19.4,30.14,NW,318,5.0,5.0,86,0.00,,,0.00,Wunderground v.1.15,2013-03-24 08:32:00,
2013-03-24 03:34:00,23.0,19.7,30.14,NW,321,3.0,5.0,87,0.00,,,0.00,Wunderground v.1.15,2013-03-24 08:34:00,
2013-03-24 03:35:00,23.0,19.7,30.14,NW,319,3.0,5.0,87,0.00,,,0.00,Wunderground v.1.15,2013-03-24 08:35:00,
2013-03-24 03:38:00,23.0,19.7,30.14,NNW,330,4.0,5.0,87,0.00,,,0.00,Wunderground v.1.15,2013-03-24 08:38:00,
2013-03-24 03:39:00,23.0,19.7,30.14,NW,323,3.0,3.0,87,0.00,,,0.00,Wunderground v.1.15,2013-03-24 08:39:00,
2013-03-24 03:40:00,23.0,19.7,30.14,NNW,330,3.0,4.0,87,0.00,,,0.00,Wunderground v.1.15,2013-03-24 08:40:00,
2013-03-24 03:43:00,23.0,20.0,30.14,NW,325,4.0,5.0,88,0.00,,,0.00,Wunderground v.1.15,2013-03-24 08:43:00,
2013-03-24 03:45:00,22.9,19.9,30.14,NW,314,4.0,5.0,88,0.00,,,0.00,Wunderground v.1.15,2013-03-24 08:45:00,
2013-03-24 03:46:00,22.9,19.9,30.14,NW,314,1.0,5.0,88,0.00,,,0.00,Wunderground v.1.15,2013-03-24 08:46:00,
2013-03-24 03:48:00,22.9,19.9,30.14,NW,315,2.0,5.0,88,0.00,,,0.00,Wunderground v.1.15,2013-03-24 08:48:00,
2013-03-24 03:50:00,22.9,19.9,30.14,NW,319,2.0,4.0,88,0.00,,,0.00,Wunderground v.1.15,2013-03-24 08:50:00,
2013-03-24 03:51:00,22.9,20.1,30.14,NNW,336,4.0,7.0,89,0.00,,,0.00,Wunderground v.1.15,2013-03-24 08:51:00,
2013-03-24 03:53:00,22.8,20.0,30.13,NW,321,3.0,7.0,89,0.00,,,0.00,Wunderground v.1.15,2013-03-24 08:53:00,
2013-03-24 03:55:00,22.7,19.9,30.13,NW,325,3.0,7.0,89,0.00,,,0.00,Wunderground v.1.15,2013-03-24 08:55:00,
2013-03-24 03:56:00,22.7,19.9,30.13,NW,325,2.0,7.0,89,0.00,,,0.00,Wunderground v.1.15,2013-03-24 08:56:00,
2013-03-24 03:57:00,22.7,19.9,30.13,NNW,329,1.0,7.0,89,0.00,,,0.00,Wunderground v.1.15,2013-03-24 08:57:00,
2013-03-24 03:59:00,22.7,19.9,30.13,NNW,329,3.0,7.0,89,0.00,,,0.00,Wunderground v.1.15,2013-03-24 08:59:00,
2013-03-24 04:00:00,22.7,19.9,30.13,NW,314,3.0,3.0,89,0.00,,,0.00,Wunderground v.1.15,2013-03-24 09:00:00,
2013-03-24 04:01:00,22.7,19.9,30.13,NW,314,3.0,3.0,89,0.00,,,0.00,Wunderground v.1.15,2013-03-24 09:01:00,
2013-03-24 04:02:00,22.7,19.9,30.13,NW,314,3.0,3.0,89,0.00,,,0.00,Wunderground v.1.15,2013-03-24 09:02:00,
2013-03-24 04:04:00,22.7,19.9,30.13,NW,314,3.0,3.0,89,0.00,,,0.00,Wunderground v.1.15,2013-03-24 09:04:00,
2013-03-24 04:05:00,22.6,19.8,30.13,NW,321,5.0,5.0,89,0.00,,,0.00,Wunderground v.1.15,2013-03-24 09:05:00,
2013-03-24 04:06:00,22.6,19.8,30.13,NW,320,5.0,7.0,89,0.00,,,0.00,Wunderground v.1.15,2013-03-24 09:06:00,
2013-03-24 04:08:00,22.6,19.8,30.13,NW,323,2.0,7.0,89,0.00,,,0.00,Wunderground v.1.15,2013-03-24 09:08:00,
2013-03-24 04:09:00,22.6,19.8,30.13,NW,319,3.0,7.0,89,0.00,,,0.00,Wunderground v.1.15,2013-03-24 09:09:00,
2013-03-24 04:10:00,22.6,20.1,30.13,NW,319,2.0,3.0,90,0.00,,,0.00,Wunderground v.1.15,2013-03-24 09:10:00,
2013-03-24 04:12:00,22.6,20.1,30.13,NW,325,4.0,4.0,90,0.00,,,0.00,Wunderground v.1.15,2013-03-24 09:12:00,
2013-03-24 04:13:00,22.6,20.1,30.13,NW,323,2.0,6.0,90,0.00,,,0.00,Wunderground v.1.15,2013-03-24 09:13:00,
2013-03-24 04:14:00,22.6,20.1,30.13,NW,324,1.0,6.0,90,0.00,,,0.00,Wunderground v.1.15,2013-03-24 09:14:00,
2013-03-24 04:16:00,22.6,20.1,30.13,NW,320,2.0,6.0,90,0.00,,,0.00,Wunderground v.1.15,2013-03-24 09:16:00,
2013-03-24 04:17:00,22.6,20.1,30.13,NW,320,2.0,6.0,90,0.00,,,0.00,Wunderground v.1.15,2013-03-24 09:17:00,
2013-03-24 04:18:00,22.5,20.0,30.12,NNW,331,2.0,6.0,90,0.00,,,0.00,Wunderground v.1.15,2013-03-24 09:18:00,
2013-03-24 04:19:00,22.5,20.0,30.13,NW,325,1.0,2.0,90,0.00,,,0.00,Wunderground v.1.15,2013-03-24 09:19:00,
2013-03-24 04:21:00,22.5,20.0,30.12,NW,325,0.0,3.0,90,0.00,,,0.00,Wunderground v.1.15,2013-03-24 09:21:00,
2013-03-24 04:22:00,22.6,20.1,30.12,NW,325,1.0,3.0,90,0.00,,,0.00,Wunderground v.1.15,2013-03-24 09:22:00,
2013-03-24 04:23:00,22.5,20.0,30.12,NW,325,2.0,4.0,90,0.00,,,0.00,Wunderground v.1.15,2013-03-24 09:23:00,
2013-03-24 04:24:00,22.5,20.0,30.12,NW,325,3.0,4.0,90,0.00,,,0.00,Wunderground v.1.15,2013-03-24 09:24:00,
2013-03-24 04:27:00,22.5,20.0,30.12,NW,324,0.0,4.0,90,0.00,,,0.00,Wunderground v.1.15,2013-03-24 09:27:00,
2013-03-24 04:29:00,22.5,20.0,30.12,NW,315,1.0,4.0,90,0.00,,,0.00,Wunderground v.1.15,2013-03-24 09:29:00,
2013-03-24 04:30:00,22.5,20.0,30.12,NW,313,1.0,2.0,90,0.00,,,0.00,Wunderground v.1.15,2013-03-24 09:30:00,
2013-03-24 04:32:00,22.5,20.0,30.12,NW,313,1.0,2.0,90,0.00,,,0.00,Wunderground v.1.15,2013-03-24 09:32:00,
2013-03-24 04:33:00,22.5,20.0,30.12,NW,313,0.0,2.0,90,0.00,,,0.00,Wunderground v.1.15,2013-03-24 09:33:00,
2013-03-24 04:34:00,22.5,20.0,30.12,NW,309,2.0,3.0,90,0.00,,,0.00,Wunderground v.1.15,2013-03-24 09:34:00,
2013-03-24 04:36:00,22.5,20.0,30.12,NW,309,1.0,3.0,90,0.00,,,0.00,Wunderground v.1.15,2013-03-24 09:36:00,
2013-03-24 04:38:00,22.5,20.0,30.12,NW,323,2.0,5.0,90,0.00,,,0.00,Wunderground v.1.15,2013-03-24 09:38:00,
2013-03-24 04:40:00,22.4,19.9,30.12,NNW,327,3.0,5.0,90,0.00,,,0.00,Wunderground v.1.15,2013-03-24 09:40:00,
2013-03-24 04:41:00,22.4,19.9,30.12,NW,322,4.0,6.0,90,0.00,,,0.00,Wunderground v.1.15,2013-03-24 09:41:00,
2013-03-24 04:43:00,22.4,19.9,30.12,NW,323,3.0,6.0,90,0.00,,,0.00,Wunderground v.1.15,2013-03-24 09:43:00,
2013-03-24 04:45:00,22.4,19.9,30.11,NW,316,2.0,6.0,90,0.00,,,0.00,Wunderground v.1.15,2013-03-24 09:45:00,
2013-03-24 04:47:00,22.3,19.8,30.11,NW,321,4.0,6.0,90,0.00,,,0.00,Wunderground v.1.15,2013-03-24 09:47:00,
2013-03-24 04:48:00,22.3,19.8,30.12,NW,321,1.0,6.0,90,0.00,,,0.00,Wunderground v.1.15,2013-03-24 09:48:00,
2013-03-24 04:50:00,22.3,19.8,30.12,NW,321,0.0,3.0,90,0.00,,,0.00,Wunderground v.1.15,2013-03-24 09:50:00,
2013-03-24 04:52:00,22.3,19.8,30.11,NW,321,0.0,3.0,90,0.00,,,0.00,Wunderground v.1.15,2013-03-24 09:52:00,
2013-03-24 04:53:00,22.3,19.8,30.11,NW,321,0.0,3.0,90,0.00,,,0.00,Wunderground v.1.15,2013-03-24 09:53:00,
2013-03-24 04:54:00,22.3,19.8,30.11,NW,321,0.0,3.0,90,0.00,,,0.00,Wunderground v.1.15,2013-03-24 09:54:00,
2013-03-24 04:55:00,22.3,19.8,30.11,NW,321,0.0,3.0,90,0.00,,,0.00,Wunderground v.1.15,2013-03-24 09:55:00,
2013-03-24 04:58:00,22.3,20.1,30.11,NW,325,3.0,5.0,91,0.00,,,0.00,Wunderground v.1.15,2013-03-24 09:58:00,
2013-03-24 04:59:00,22.2,20.0,30.11,NW,323,3.0,6.0,91,0.00,,,0.00,Wunderground v.1.15,2013-03-24 09:59:00,
2013-03-24 05:00:00,22.2,20.0,30.11,NW,324,3.0,4.0,91,0.00,,,0.00,Wunderground v.1.15,2013-03-24 10:00:00,
2013-03-24 05:03:00,22.2,20.0,30.11,NNW,338,3.0,5.0,91,0.00,,,0.00,Wunderground v.1.15,2013-03-24 10:03:00,
2013-03-24 05:04:00,22.2,20.0,30.11,NW,320,2.0,6.0,91,0.00,,,0.00,Wunderground v.1.15,2013-03-24 10:04:00,
2013-03-24 05:05:00,22.2,20.0,30.11,NW,323,4.0,6.0,91,0.00,,,0.00,Wunderground v.1.15,2013-03-24 10:05:00,
2013-03-24 05:08:00,22.2,20.0,30.11,NNW,327,2.0,6.0,91,0.00,,,0.00,Wunderground v.1.15,2013-03-24 10:08:00,
2013-03-24 05:09:00,22.2,20.0,30.11,NNW,327,3.0,6.0,91,0.00,,,0.00,Wunderground v.1.15,2013-03-24 10:09:00,
2013-03-24 05:10:00,22.2,20.0,30.11,NNW,327,1.0,4.0,91,0.00,,,0.00,Wunderground v.1.15,2013-03-24 10:10:00,
2013-03-24 05:13:00,22.2,20.0,30.11,NW,313,4.0,5.0,91,0.00,,,0.00,Wunderground v.1.15,2013-03-24 10:13:00,
2013-03-24 05:14:00,22.2,20.0,30.11,NW,307,3.0,5.0,91,0.00,,,0.00,Wunderground v.1.15,2013-03-24 10:14:00,
2013-03-24 05:16:00,22.2,20.0,30.11,NW,322,2.0,5.0,91,0.00,,,0.00,Wunderground v.1.15,2013-03-24 10:16:00,
2013-03-24 05:18:00,22.2,20.0,30.11,NW,321,4.0,6.0,91,0.00,,,0.00,Wunderground v.1.15,2013-03-24 10:18:00,
2013-03-24 05:19:00,22.2,20.0,30.11,NW,326,5.0,6.0,91,0.00,,,0.00,Wunderground v.1.15,2013-03-24 10:19:00,
2013-03-24 05:20:00,22.2,20.0,30.11,NW,325,5.0,5.0,91,0.00,,,0.00,Wunderground v.1.15,2013-03-24 10:20:00,
2013-03-24 05:21:00,22.2,19.7,30.11,NW,313,4.0,5.0,90,0.00,,,0.00,Wunderground v.1.15,2013-03-24 10:21:00,
2013-03-24 05:23:00,22.1,19.6,30.11,NW,325,3.0,6.0,90,0.00,,,0.00,Wunderground v.1.15,2013-03-24 10:23:00,
2013-03-24 05:24:00,22.1,19.6,30.11,NW,317,4.0,6.0,90,0.00,,,0.00,Wunderground v.1.15,2013-03-24 10:24:00,
2013-03-24 05:25:00,22.1,19.6,30.11,NW,325,2.0,6.0,90,0.00,,,0.00,Wunderground v.1.15,2013-03-24 10:25:00,
2013-03-24 05:27:00,22.1,19.6,30.10,NW,315,4.0,6.0,90,0.00,,,0.00,Wunderground v.1.15,2013-03-24 10:27:00,
2013-03-24 05:28:00,22.1,19.6,30.10,NW,318,3.0,6.0,90,0.00,,,0.00,Wunderground v.1.15,2013-03-24 10:28:00,
2013-03-24 05:30:00,22.1,19.6,30.10,NW,321,5.0,5.0,90,0.00,,,0.00,Wunderground v.1.15,2013-03-24 10:30:00,
2013-03-24 05:33:00,22.1,19.6,30.10,NW,318,2.0,5.0,90,0.00,,,0.00,Wunderground v.1.15,2013-03-24 10:33:00,
2013-03-24 05:34:00,22.1,19.6,30.10,NW,325,3.0,6.0,90,0.00,,,0.00,Wunderground v.1.15,2013-03-24 10:34:00,
2013-03-24 05:35:00,22.1,19.6,30.10,NW,325,1.0,6.0,90,0.00,,,0.00,Wunderground v.1.15,2013-03-24 10:35:00,
2013-03-24 05:38:00,22.1,19.6,30.10,NW,325,2.0,6.0,90,0.00,,,0.00,Wunderground v.1.15,2013-03-24 10:38:00,
2013-03-24 05:39:00,22.1,19.6,30.10,NW,325,4.0,6.0,90,0.00,,,0.00,Wunderground v.1.15,2013-03-24 10:39:00,
2013-03-24 05:40:00,22.1,19.6,30.10,NNW,329,1.0,4.0,90,0.00,,,0.00,Wunderground v.1.15,2013-03-24 10:40:00,
2013-03-24 05:44:00,22.1,19.6,30.10,NNW,328,3.0,5.0,90,0.00,,,0.00,Wunderground v.1.15,2013-03-24 10:44:00,
2013-03-24 05:45:00,22.1,19.6,30.10,NW,309,2.0,5.0,90,0.00,,,0.00,Wunderground v.1.15,2013-03-24 10:45:00,
2013-03-24 05:49:00,22.1,19.6,30.10,NW,325,3.0,6.0,90,0.00,,,0.00,Wunderground v.1.15,2013-03-24 10:49:00,
2013-03-24 05:50:00,22.1,19.6,30.10,NW,315,3.0,5.0,90,0.00,,,0.00,Wunderground v.1.15,2013-03-24 10:50:00,
2013-03-24 05:52:00,22.1,19.6,30.10,NW,325,2.0,5.0,90,0.00,,,0.00,Wunderground v.1.15,2013-03-24 10:52:00,
2013-03-24 05:54:00,22.0,19.5,30.10,NNW,335,1.0,5.0,90,0.00,,,0.00,Wunderground v.1.15,2013-03-24 10:54:00,
2013-03-24 05:55:00,22.1,19.6,30.10,NNW,334,2.0,5.0,90,0.00,,,0.00,Wunderground v.1.15,2013-03-24 10:55:00,
2013-03-24 05:56:00,22.0,19.8,30.10,NW,308,3.0,5.0,91,0.00,,,0.00,Wunderground v.1.15,2013-03-24 10:56:00,
2013-03-24 05:57:00,22.0,19.8,30.10,NNW,331,3.0,5.0,91,0.00,,,0.00,Wunderground v.1.15,2013-03-24 10:57:00,
2013-03-24 06:00:00,22.0,19.8,30.10,NNW,331,0.0,3.0,91,0.00,,,0.00,Wunderground v.1.15,2013-03-24 11:00:00,
2013-03-24 06:01:00,22.0,19.8,30.10,WNW,300,2.0,3.0,91,0.00,,,0.00,Wunderground v.1.15,2013-03-24 11:01:00,
2013-03-24 06:02:00,22.0,19.8,30.10,NW,311,1.0,3.0,91,0.00,,,0.00,Wunderground v.1.15,2013-03-24 11:02:00,
2013-03-24 06:05:00,22.0,19.8,30.10,NNW,327,3.0,5.0,91,0.00,,,0.00,Wunderground v.1.15,2013-03-24 11:05:00,
2013-03-24 06:07:00,21.9,19.7,30.10,NNW,327,2.0,5.0,91,0.00,,,0.00,Wunderground v.1.15,2013-03-24 11:07:00,
2013-03-24 06:10:00,21.9,19.7,30.10,NW,317,4.0,4.0,91,0.00,,,0.00,Wunderground v.1.15,2013-03-24 11:10:00,
2013-03-24 06:12:00,21.9,19.7,30.10,NW,326,3.0,6.0,91,0.00,,,0.00,Wunderground v.1.15,2013-03-24 11:12:00,
2013-03-24 06:15:00,21.9,19.7,30.10,NNW,336,4.0,6.0,91,0.00,,,0.00,Wunderground v.1.15,2013-03-24 11:15:00,
2013-03-24 06:17:00,21.9,19.7,30.10,NNW,329,5.0,6.0,91,0.00,,,0.00,Wunderground v.1.15,2013-03-24 11:17:00,
2013-03-24 06:18:00,21.9,19.7,30.10,NNW,329,2.0,6.0,91,0.00,,,0.00,Wunderground v.1.15,2013-03-24 11:18:00,
2013-03-24 06:20:00,21.9,19.7,30.10,NW,323,2.0,4.0,91,0.00,,,0.00,Wunderground v.1.15,2013-03-24 11:20:00,
2013-03-24 06:22:00,21.8,19.6,30.10,NW,324,3.0,5.0,91,0.00,,,0.00,Wunderground v.1.15,2013-03-24 11:22:00,
2013-03-24 06:23:00,21.8,19.6,30.10,NW,324,3.0,5.0,91,0.00,,,0.00,Wunderground v.1.15,2013-03-24 11:23:00,
2013-03-24 06:25:00,21.8,19.6,30.10,NW,323,4.0,6.0,91,0.00,,,0.00,Wunderground v.1.15,2013-03-24 11:25:00,
2013-03-24 06:26:00,21.8,19.6,30.10,NW,321,4.0,6.0,91,0.00,,,0.00,Wunderground v.1.15,2013-03-24 11:26:00,
2013-03-24 06:27:00,21.8,19.6,30.10,NW,324,3.0,6.0,91,0.00,,,0.00,Wunderground v.1.15,2013-03-24 11:27:00,
2013-03-24 06:29:00,21.8,19.6,30.09,NW,324,3.0,6.0,91,0.00,,,0.00,Wunderground v.1.15,2013-03-24 11:29:00,
2013-03-24 06:30:00,21.7,19.5,30.10,NW,326,2.0,6.0,91,0.00,,,0.00,Wunderground v.1.15,2013-03-24 11:30:00,
2013-03-24 06:31:00,21.7,19.5,30.10,NW,326,3.0,6.0,91,0.00,,,0.00,Wunderground v.1.15,2013-03-24 11:31:00,
2013-03-24 06:32:00,21.7,19.5,30.10,NW,326,3.0,6.0,91,0.00,,,0.00,Wunderground v.1.15,2013-03-24 11:32:00,
2013-03-24 06:34:00,21.7,19.5,30.10,NW,326,3.0,6.0,91,0.00,,,0.00,Wunderground v.1.15,2013-03-24 11:34:00,
2013-03-24 06:35:00,21.7,19.5,30.10,NW,326,3.0,6.0,91,0.00,,,0.00,Wunderground v.1.15,2013-03-24 11:35:00,
2013-03-24 06:37:00,21.7,19.5,30.10,NNW,327,5.0,6.0,91,0.00,,,0.00,Wunderground v.1.15,2013-03-24 11:37:00,
2013-03-24 06:39:00,21.7,19.5,30.09,NNW,334,3.0,6.0,91,0.00,,,0.00,Wunderground v.1.15,2013-03-24 11:39:00,
2013-03-24 06:40:00,21.6,19.4,30.09,NW,321,4.0,4.0,91,0.00,,,0.00,Wunderground v.1.15,2013-03-24 11:40:00,
2013-03-24 06:43:00,21.6,19.4,30.10,NW,326,5.0,6.0,91,0.00,,,0.00,Wunderground v.1.15,2013-03-24 11:43:00,
2013-03-24 06:44:00,21.6,19.4,30.10,NW,325,4.0,6.0,91,0.00,,,0.00,Wunderground v.1.15,2013-03-24 11:44:00,
2013-03-24 06:46:00,21.5,19.3,30.10,NW,321,4.0,6.0,91,0.00,,,0.00,Wunderground v.1.15,2013-03-24 11:46:00,
2013-03-24 06:48:00,21.5,19.3,30.10,NW,323,5.0,6.0,91,0.00,,,0.00,Wunderground v.1.15,2013-03-24 11:48:00,
2013-03-24 06:49:00,21.5,19.3,30.10,NW,323,4.0,4.0,91,0.00,,,0.00,Wunderground v.1.15,2013-03-24 11:49:00,
2013-03-24 06:52:00,21.5,19.0,30.10,NNW,331,3.0,6.0,90,0.00,,,0.00,Wunderground v.1.15,2013-03-24 11:52:00,
2013-03-24 06:53:00,21.5,19.0,30.10,NW,321,2.0,6.0,90,0.00,,,0.00,Wunderground v.1.15,2013-03-24 11:53:00,
2013-03-24 06:54:00,21.5,19.0,30.10,NW,325,4.0,6.0,90,0.00,,,0.00,Wunderground v.1.15,2013-03-24 11:54:00,
2013-03-24 06:57:00,21.5,19.0,30.10,NW,317,3.0,6.0,90,0.00,,,0.00,Wunderground v.1.15,2013-03-24 11:57:00,
2013-03-24 06:58:00,21.4,18.9,30.10,NW,321,3.0,6.0,90,0.00,,,0.00,Wunderground v.1.15,2013-03-24 11:58:00,
2013-03-24 06:59:00,21.4,18.9,30.10,NW,326,4.0,4.0,90,0.00,,,0.00,Wunderground v.1.15,2013-03-24 11:59:00,
2013-03-24 07:02:00,21.4,18.9,30.10,NNW,333,6.0,6.0,90,0.00,,,0.00,Wunderground v.1.15,2013-03-24 12:02:00,
2013-03-24 07:03:00,21.4,18.9,30.10,NW,326,6.0,7.0,90,0.00,,,0.00,Wunderground v.1.15,2013-03-24 12:03:00,
2013-03-24 07:04:00,21.4,19.2,30.10,NW,320,2.0,7.0,91,0.00,,,0.00,Wunderground v.1.15,2013-03-24 12:04:00,
2013-03-24 07:08:00,21.4,18.9,30.10,NW,325,3.0,7.0,90,0.00,,,0.00,Wunderground v.1.15,2013-03-24 12:08:00,
2013-03-24 07:09:00,21.3,18.8,30.10,NNW,327,2.0,7.0,90,0.00,,,0.00,Wunderground v.1.15,2013-03-24 12:09:00,
2013-03-24 07:13:00,21.3,18.8,30.10,NNW,327,3.0,5.0,90,0.00,,,0.00,Wunderground v.1.15,2013-03-24 12:13:00,
2013-03-24 07:14:00,21.3,18.8,30.09,NW,326,3.0,5.0,90,0.00,,,0.00,Wunderground v.1.15,2013-03-24 12:14:00,
2013-03-24 07:15:00,21.3,18.8,30.09,NW,326,3.0,5.0,90,0.00,,,0.00,Wunderground v.1.15,2013-03-24 12:15:00,
2013-03-24 07:18:00,21.3,19.1,30.10,NW,321,2.0,5.0,91,0.00,,,0.00,Wunderground v.1.15,2013-03-24 12:18:00,
2013-03-24 07:19:00,21.3,19.1,30.10,NW,321,3.0,3.0,91,0.00,,,0.00,Wunderground v.1.15,2013-03-24 12:19:00,
2013-03-24 07:20:00,21.3,19.1,30.10,NW,325,4.0,6.0,91,0.00,,,0.00,Wunderground v.1.15,2013-03-24 12:20:00,
2013-03-24 07:23:00,21.3,19.1,30.09,NW,326,0.0,6.0,91,0.00,,,0.00,Wunderground v.1.15,2013-03-24 12:23:00,
2013-03-24 07:24:00,21.3,19.1,30.10,NNW,338,3.0,6.0,91,0.00,,,0.00,Wunderground v.1.15,2013-03-24 12:24:00,
2013-03-24 07:25:00,21.3,19.1,30.10,NW,311,2.0,6.0,91,0.00,,,0.00,Wunderground v.1.15,2013-03-24 12:25:00,
2013-03-24 07:29:00,21.2,19.0,30.09,WNW,293,0.0,6.0,91,0.00,,,0.00,Wunderground v.1.15,2013-03-24 12:29:00,
2013-03-24 07:30:00,21.2,19.0,30.09,NW,318,3.0,4.0,91,0.00,,,0.00,Wunderground v.1.15,2013-03-24 12:30:00,
2013-03-24 07:31:00,21.2,19.0,30.09,NW,318,2.0,4.0,91,0.00,,,0.00,Wunderground v.1.15,2013-03-24 12:31:00,
2013-03-24 07:34:00,21.2,19.0,30.09,NW,319,1.0,4.0,91,0.00,,,0.00,Wunderground v.1.15,2013-03-24 12:34:00,
2013-03-24 07:36:00,21.2,19.0,30.09,NW,319,2.0,4.0,91,0.00,,,0.00,Wunderground v.1.15,2013-03-24 12:36:00,
2013-03-24 07:37:00,21.2,19.0,30.09,NW,319,1.0,4.0,91,0.00,,,0.00,Wunderground v.1.15,2013-03-24 12:37:00,
2013-03-24 07:39:00,21.2,19.0,30.09,NW,319,0.0,1.0,91,0.00,,,0.00,Wunderground v.1.15,2013-03-24 12:39:00,
2013-03-24 07:40:00,21.2,19.0,30.09,NW,319,0.0,1.0,91,0.00,,,0.00,Wunderground v.1.15,2013-03-24 12:40:00,
2013-03-24 07:41:00,21.2,19.0,30.09,NW,319,1.0,2.0,91,0.00,,,0.00,Wunderground v.1.15,2013-03-24 12:41:00,
2013-03-24 07:42:00,21.2,19.0,30.09,NW,319,1.0,2.0,91,0.00,,,0.00,Wunderground v.1.15,2013-03-24 12:42:00,
2013-03-24 07:45:00,21.1,18.9,30.09,NW,319,1.0,3.0,91,0.00,,,0.00,Wunderground v.1.15,2013-03-24 12:45:00,
2013-03-24 07:46:00,21.2,19.0,30.09,NW,319,2.0,3.0,91,0.00,,,0.00,Wunderground v.1.15,2013-03-24 12:46:00,
2013-03-24 07:49:00,21.2,19.0,30.09,NW,319,0.0,1.0,91,0.00,,,0.00,Wunderground v.1.15,2013-03-24 12:49:00,
2013-03-24 07:50:00,21.2,19.0,30.09,NW,319,0.0,1.0,91,0.00,,,0.00,Wunderground v.1.15,2013-03-24 12:50:00,
2013-03-24 07:51:00,21.2,19.0,30.09,West,269,2.0,3.0,91,0.00,,,0.00,Wunderground v.1.15,2013-03-24 12:51:00,
2013-03-24 07:54:00,21.2,19.0,30.09,WNW,295,0.0,5.0,91,0.00,,,0.00,Wunderground v.1.15,2013-03-24 12:54:00,
2013-03-24 07:56:00,21.2,19.0,30.09,NW,321,3.0,5.0,91,0.00,,,0.00,Wunderground v.1.15,2013-03-24 12:56:00,
2013-03-24 07:59:00,21.2,19.0,30.10,NW,321,3.0,3.0,91,0.00,,,0.00,Wunderground v.1.15,2013-03-24 12:59:00,
2013-03-24 08:01:00,21.2,19.0,30.10,NW,321,0.0,3.0,91,0.00,,,0.00,Wunderground v.1.15,2013-03-24 13:01:00,
2013-03-24 08:04:00,21.2,19.0,30.10,NW,324,0.0,4.0,91,0.00,,,0.00,Wunderground v.1.15,2013-03-24 13:04:00,
2013-03-24 08:05:00,21.2,19.0,30.10,NW,324,2.0,4.0,91,0.00,,,0.00,Wunderground v.1.15,2013-03-24 13:05:00,
2013-03-24 08:06:00,21.2,19.0,30.09,NW,324,3.0,4.0,91,0.00,,,0.00,Wunderground v.1.15,2013-03-24 13:06:00,
2013-03-24 08:10:00,21.2,18.7,30.10,NW,322,1.0,2.0,90,0.00,,,0.00,Wunderground v.1.15,2013-03-24 13:10:00,
2013-03-24 08:11:00,21.2,19.0,30.10,NW,322,2.0,2.0,91,0.00,,,0.00,Wunderground v.1.15,2013-03-24 13:11:00,
2013-03-24 08:12:00,21.2,19.0,30.10,NW,322,0.0,2.0,91,0.00,,,0.00,Wunderground v.1.15,2013-03-24 13:12:00,
2013-03-24 08:15:00,21.3,19.1,30.10,NW,322,0.0,3.0,91,0.00,,,0.00,Wunderground v.1.15,2013-03-24 13:15:00,
2013-03-24 08:16:00,21.3,19.1,30.10,NW,322,1.0,3.0,91,0.00,,,0.00,Wunderground v.1.15,2013-03-24 13:16:00,
2013-03-24 08:17:00,21.3,19.1,30.09,NW,313,1.0,3.0,91,0.00,,,0.00,Wunderground v.1.15,2013-03-24 13:17:00,
2013-03-24 08:21:00,21.4,19.2,30.09,NW,313,1.0,2.0,91,0.00,,,0.00,Wunderground v.1.15,2013-03-24 13:21:00,
2013-03-24 08:22:00,21.5,19.0,30.09,WNW,299,2.0,4.0,90,0.00,,,0.00,Wunderground v.1.15,2013-03-24 13:22:00,
2013-03-24 08:26:00,21.5,19.0,30.09,NW,305,3.0,4.0,90,0.00,,,0.00,Wunderground v.1.15,2013-03-24 13:26:00,
2013-03-24 08:27:00,21.5,19.0,30.09,NNW,332,2.0,4.0,90,0.00,,,0.00,Wunderground v.1.15,2013-03-24 13:27:00,
2013-03-24 08:28:00,21.5,19.0,30.09,NW,325,5.0,5.0,90,0.00,,,0.00,Wunderground v.1.15,2013-03-24 13:28:00,
2013-03-24 08:32:00,21.7,19.2,30.09,WNW,297,5.0,5.0,90,0.00,,,0.00,Wunderground v.1.15,2013-03-24 13:32:00,
2013-03-24 08:33:00,21.7,19.2,30.09,NW,324,2.0,5.0,90,0.00,,,0.00,Wunderground v.1.15,2013-03-24 13:33:00,
2013-03-24 08:37:00,21.8,19.3,30.09,NW,304,1.0,5.0,90,0.00,,,0.00,Wunderground v.1.15,2013-03-24 13:37:00,
2013-03-24 08:38:00,21.9,19.4,30.09,NW,304,2.0,5.0,90,0.00,,,0.00,Wunderground v.1.15,2013-03-24 13:38:00,
2013-03-24 08:42:00,22.0,19.5,30.09,WNW,286,1.0,2.0,90,0.00,,,0.00,Wunderground v.1.15,2013-03-24 13:42:00,
2013-03-24 08:43:00,22.1,19.6,30.09,WNW,286,1.0,2.0,90,0.00,,,0.00,Wunderground v.1.15,2013-03-24 13:43:00,
2013-03-24 08:48:00,22.3,19.8,30.09,NW,316,2.0,3.0,90,0.00,,,0.00,Wunderground v.1.15,2013-03-24 13:48:00,
2013-03-24 08:53:00,22.3,19.6,30.09,WNW,286,1.0,4.0,89,0.00,,,0.00,Wunderground v.1.15,2013-03-24 13:53:00,
2013-03-24 08:54:00,22.3,19.6,30.09,NW,316,3.0,4.0,89,0.00,,,0.00,Wunderground v.1.15,2013-03-24 13:54:00,
2013-03-24 08:58:00,22.5,19.7,30.09,NW,307,3.0,6.0,89,0.00,,,0.00,Wunderground v.1.15,2013-03-24 13:58:00,
2013-03-24 08:59:00,22.5,19.7,30.09,WNW,292,5.0,7.0,89,0.00,,,0.00,Wunderground v.1.15,2013-03-24 13:59:00,
2013-03-24 09:03:00,22.6,19.8,30.09,NW,309,2.0,5.0,89,0.00,,,0.00,Wunderground v.1.15,2013-03-24 14:03:00,
2013-03-24 09:04:00,22.6,19.8,30.09,WNW,298,4.0,5.0,89,0.00,,,0.00,Wunderground v.1.15,2013-03-24 14:04:00,
2013-03-24 09:05:00,22.6,19.8,30.09,WNW,297,2.0,5.0,89,0.00,,,0.00,Wunderground v.1.15,2013-03-24 14:05:00,
2013-03-24 09:08:00,22.7,19.9,30.09,NNW,339,2.0,6.0,89,0.00,,,0.00,Wunderground v.1.15,2013-03-24 14:08:00,
2013-03-24 09:10:00,22.7,19.9,30.09,NW,315,2.0,2.0,89,0.00,,,0.00,Wunderground v.1.15,2013-03-24 14:10:00,
2013-03-24 09:13:00,22.9,20.1,30.09,NW,325,3.0,5.0,89,0.00,,,0.00,Wunderground v.1.15,2013-03-24 14:13:00,
2013-03-24 09:15:00,23.1,20.3,30.09,NW,313,2.0,7.0,89,0.00,,,0.00,Wunderground v.1.15,2013-03-24 14:15:00,
2013-03-24 09:16:00,23.0,20.2,30.09,NNE,16,8.0,8.0,89,0.00,,,0.00,Wunderground v.1.15,2013-03-24 14:16:00,
2013-03-24 09:18:00,23.1,20.1,30.09,WNW,290,3.0,8.0,88,0.00,,,0.00,Wunderground v.1.15,2013-03-24 14:18:00,
2013-03-24 09:20:00,23.1,20.1,30.09,WNW,298,1.0,5.0,88,0.00,,,0.00,Wunderground v.1.15,2013-03-24 14:20:00,
2013-03-24 09:21:00,23.1,20.1,30.09,WNW,298,0.0,5.0,88,0.00,,,0.00,Wunderground v.1.15,2013-03-24 14:21:00,
2013-03-24 09:22:00,23.2,20.2,30.09,NW,323,2.0,5.0,88,0.00,,,0.00,Wunderground v.1.15,2013-03-24 14:22:00,
2013-03-24 09:24:00,23.3,20.3,30.09,NNW,333,7.0,8.0,88,0.00,,,0.00,Wunderground v.1.15,2013-03-24 14:24:00,
2013-03-24 09:25:00,23.3,20.3,30.09,NW,313,2.0,8.0,88,0.00,,,0.00,Wunderground v.1.15,2013-03-24 14:25:00,
2013-03-24 09:26:00,23.3,20.3,30.09,NW,313,3.0,8.0,88,0.00,,,0.00,Wunderground v.1.15,2013-03-24 14:26:00,
2013-03-24 09:28:00,23.3,20.3,30.09,NW,313,1.0,8.0,88,0.00,,,0.00,Wunderground v.1.15,2013-03-24 14:28:00,
2013-03-24 09:29:00,23.4,20.4,30.08,NW,313,0.0,3.0,88,0.00,,,0.00,Wunderground v.1.15,2013-03-24 14:29:00,
2013-03-24 09:30:00,23.5,20.5,30.08,WNW,296,1.0,5.0,88,0.00,,,0.00,Wunderground v.1.15,2013-03-24 14:30:00,
2013-03-24 09:32:00,23.6,20.6,30.08,NW,304,3.0,5.0,88,0.00,,,0.00,Wunderground v.1.15,2013-03-24 14:32:00,
2013-03-24 09:33:00,23.7,20.7,30.08,NW,304,0.0,5.0,88,0.00,,,0.00,Wunderground v.1.15,2013-03-24 14:33:00,
2013-03-24 09:34:00,23.8,20.8,30.08,NW,323,3.0,5.0,88,0.00,,,0.00,Wunderground v.1.15,2013-03-24 14:34:00,
2013-03-24 09:36:00,23.8,20.8,30.08,NNW,327,6.0,7.0,88,0.00,,,0.00,Wunderground v.1.15,2013-03-24 14:36:00,
2013-03-24 09:37:00,23.8,20.5,30.08,NW,326,5.0,7.0,87,0.00,,,0.00,Wunderground v.1.15,2013-03-24 14:37:00,
2013-03-24 09:38:00,23.8,20.5,30.08,NW,315,1.0,7.0,87,0.00,,,0.00,Wunderground v.1.15,2013-03-24 14:38:00,
2013-03-24 09:40:00,23.9,20.9,30.09,NW,313,1.0,3.0,88,0.00,,,0.00,Wunderground v.1.15,2013-03-24 14:40:00,
2013-03-24 09:42:00,24.0,21.0,30.09,NW,321,4.0,4.0,88,0.00,,,0.00,Wunderground v.1.15,2013-03-24 14:42:00,
2013-03-24 09:44:00,24.0,21.0,30.09,NW,318,2.0,6.0,88,0.00,,,0.00,Wunderground v.1.15,2013-03-24 14:44:00,
2013-03-24 09:45:00,23.9,20.6,30.09,NW,323,4.0,7.0,87,0.00,,,0.00,Wunderground v.1.15,2013-03-24 14:45:00,
2013-03-24 09:47:00,23.9,20.6,30.09,NNW,333,3.0,7.0,87,0.00,,,0.00,Wunderground v.1.15,2013-03-24 14:47:00,
2013-03-24 09:49:00,23.8,20.5,30.09,NW,315,4.0,8.0,87,0.00,,,0.00,Wunderground v.1.15,2013-03-24 14:49:00,
2013-03-24 09:51:00,23.8,20.5,30.09,NW,326,3.0,6.0,87,0.00,,,0.00,Wunderground v.1.15,2013-03-24 14:51:00,
2013-03-24 09:52:00,23.7,20.4,30.08,NNW,338,2.0,7.0,87,0.00,,,0.00,Wunderground v.1.15,2013-03-24 14:52:00,
2013-03-24 09:54:00,23.8,20.5,30.09,NNW,328,3.0,7.0,87,0.00,,,0.00,Wunderground v.1.15,2013-03-24 14:54:00,
2013-03-24 09:57:00,23.8,20.8,30.09,NW,317,6.0,7.0,88,0.00,,,0.00,Wunderground v.1.15,2013-03-24 14:57:00,
2013-03-24 09:58:00,23.8,20.8,30.08,NW,317,6.0,7.0,88,0.00,,,0.00,Wunderground v.1.15,2013-03-24 14:58:00,
2013-03-24 09:59:00,23.8,20.8,30.08,NW,317,6.0,7.0,88,0.00,,,0.00,Wunderground v.1.15,2013-03-24 14:59:00,
2013-03-24 10:02:00,23.9,20.9,30.08,North,350,3.0,6.0,88,0.00,,,0.00,Wunderground v.1.15,2013-03-24 15:02:00,
2013-03-24 10:03:00,23.9,20.9,30.08,NW,312,4.0,7.0,88,0.00,,,0.00,Wunderground v.1.15,2013-03-24 15:03:00,
2013-03-24 10:04:00,23.9,20.9,30.08,NNW,333,7.0,7.0,88,0.00,,,0.00,Wunderground v.1.15,2013-03-24 15:04:00,
2013-03-24 10:08:00,23.9,20.6,30.08,NNW,328,8.0,8.0,87,0.00,,,0.00,Wunderground v.1.15,2013-03-24 15:08:00,
2013-03-24 10:09:00,24.0,21.0,30.08,NW,319,5.0,8.0,88,0.00,,,0.00,Wunderground v.1.15,2013-03-24 15:09:00,
2013-03-24 10:13:00,24.1,21.1,30.08,NNW,333,3.0,6.0,88,0.00,,,0.00,Wunderground v.1.15,2013-03-24 15:13:00,
2013-03-24 10:14:00,24.2,21.2,30.08,NW,321,5.0,7.0,88,0.00,,,0.00,Wunderground v.1.15,2013-03-24 15:14:00,
2013-03-24 10:18:00,24.5,21.5,30.08,NW,314,3.0,7.0,88,0.00,,,0.00,Wunderground v.1.15,2013-03-24 15:18:00,
2013-03-24 10:19:00,24.5,21.5,30.08,NW,319,3.0,7.0,88,0.00,,,0.00,Wunderground v.1.15,2013-03-24 15:19:00,
2013-03-24 10:23:00,24.7,21.4,30.08,NW,325,4.0,6.0,87,0.00,,,0.00,Wunderground v.1.15,2013-03-24 15:23:00,
2013-03-24 10:24:00,24.7,21.4,30.08,NNW,333,4.0,6.0,87,0.00,,,0.00,Wunderground v.1.15,2013-03-24 15:24:00,
2013-03-24 10:28:00,24.8,21.5,30.08,NNW,330,3.0,7.0,87,0.00,,,0.00,Wunderground v.1.15,2013-03-24 15:28:00,
2013-03-24 10:29:00,24.8,21.5,30.08,NW,323,5.0,7.0,87,0.00,,,0.00,Wunderground v.1.15,2013-03-24 15:29:00,
2013-03-24 10:34:00,25.2,21.9,30.08,NNW,327,3.0,6.0,87,0.00,,,0.00,Wunderground v.1.15,2013-03-24 15:34:00,
2013-03-24 10:39:00,25.5,22.2,30.08,NNW,327,5.0,5.0,87,0.00,,,0.00,Wunderground v.1.15,2013-03-24 15:39:00,
2013-03-24 10:40:00,25.6,22.3,30.08,NNW,327,3.0,5.0,87,0.00,,,0.00,Wunderground v.1.15,2013-03-24 15:40:00,
2013-03-24 10:45:00,25.6,22.3,30.08,NW,318,2.0,7.0,87,0.00,,,0.00,Wunderground v.1.15,2013-03-24 15:45:00,
2013-03-24 10:50:00,25.9,22.6,30.07,NW,325,4.0,4.0,87,0.00,,,0.00,Wunderground v.1.15,2013-03-24 15:50:00,
2013-03-24 10:51:00,26.0,22.7,30.08,NNW,334,3.0,5.0,87,0.00,,,0.00,Wunderground v.1.15,2013-03-24 15:51:00,
2013-03-24 10:55:00,26.1,22.5,30.08,NNW,327,2.0,7.0,86,0.00,,,0.00,Wunderground v.1.15,2013-03-24 15:55:00,
2013-03-24 10:56:00,26.1,22.5,30.08,NNW,327,3.0,7.0,86,0.00,,,0.00,Wunderground v.1.15,2013-03-24 15:56:00,
2013-03-24 10:57:00,26.1,22.5,30.08,NNW,327,3.0,7.0,86,0.00,,,0.00,Wunderground v.1.15,2013-03-24 15:57:00,
2013-03-24 11:00:00,26.3,23.0,30.08,NW,314,3.0,5.0,87,0.00,,,0.00,Wunderground v.1.15,2013-03-24 16:00:00,
2013-03-24 11:01:00,26.2,22.6,30.08,NW,325,3.0,5.0,86,0.00,,,0.00,Wunderground v.1.15,2013-03-24 16:01:00,
2013-03-24 11:02:00,26.2,22.6,30.08,WSW,258,2.0,6.0,86,0.00,,,0.00,Wunderground v.1.15,2013-03-24 16:02:00,
2013-03-24 11:05:00,26.3,22.7,30.08,North,355,5.0,8.0,86,0.00,,,0.00,Wunderground v.1.15,2013-03-24 16:05:00,
2013-03-24 11:06:00,26.3,22.7,30.08,NNW,329,3.0,8.0,86,0.00,,,0.00,Wunderground v.1.15,2013-03-24 16:06:00,
2013-03-24 11:07:00,26.3,22.7,30.08,NNW,329,5.0,8.0,86,0.00,,,0.00,Wunderground v.1.15,2013-03-24 16:07:00,
2013-03-24 11:10:00,26.2,22.6,30.07,NW,323,6.0,6.0,86,0.00,,,0.00,Wunderground v.1.15,2013-03-24 16:10:00,
2013-03-24 11:12:00,26.1,22.2,30.08,NW,322,3.0,6.0,85,0.00,,,0.00,Wunderground v.1.15,2013-03-24 16:12:00,
2013-03-24 11:13:00,26.1,22.2,30.07,WNW,300,3.0,6.0,85,0.00,,,0.00,Wunderground v.1.15,2013-03-24 16:13:00,
2013-03-24 11:16:00,26.1,22.5,30.08,WNW,303,3.0,7.0,86,0.00,,,0.00,Wunderground v.1.15,2013-03-24 16:16:00,
2013-03-24 11:17:00,26.1,22.5,30.08,NW,325,6.0,7.0,86,0.00,,,0.00,Wunderground v.1.15,2013-03-24 16:17:00,
2013-03-24 11:18:00,26.1,22.2,30.07,NNW,331,3.0,7.0,85,0.00,,,0.00,Wunderground v.1.15,2013-03-24 16:18:00,
2013-03-24 11:21:00,26.0,22.1,30.07,NW,305,6.0,8.0,85,0.00,,,0.00,Wunderground v.1.15,2013-03-24 16:21:00,
2013-03-24 11:22:00,26.1,22.5,30.07,WNW,299,2.0,8.0,86,0.00,,,0.00,Wunderground v.1.15,2013-03-24 16:22:00,
2013-03-24 11:23:00,26.1,22.5,30.07,NW,318,5.0,8.0,86,0.00,,,0.00,Wunderground v.1.15,2013-03-24 16:23:00,
2013-03-24 11:27:00,26.2,22.6,30.07,NNW,332,5.0,8.0,86,0.00,,,0.00,Wunderground v.1.15,2013-03-24 16:27:00,
2013-03-24 11:28:00,26.2,22.6,30.07,NNW,331,3.0,8.0,86,0.00,,,0.00,Wunderground v.1.15,2013-03-24 16:28:00,
2013-03-24 11:33:00,26.5,22.9,30.07,NW,307,2.0,6.0,86,0.00,,,0.00,Wunderground v.1.15,2013-03-24 16:33:00,
2013-03-24 11:34:00,26.5,22.9,30.07,NW,319,4.0,6.0,86,0.00,,,0.00,Wunderground v.1.15,2013-03-24 16:34:00,
2013-03-24 11:38:00,26.5,22.9,30.07,NW,325,5.0,6.0,86,0.00,,,0.01,Wunderground v.1.15,2013-03-24 16:38:00,
2013-03-24 11:39:00,26.5,22.9,30.07,NW,312,1.0,6.0,86,0.00,,,0.01,Wunderground v.1.15,2013-03-24 16:39:00,
2013-03-24 11:43:00,26.9,23.5,30.07,West,276,3.0,5.0,87,0.00,,,0.01,Wunderground v.1.15,2013-03-24 16:43:00,
2013-03-24 11:44:00,26.9,23.5,30.07,West,276,1.0,5.0,87,0.00,,,0.01,Wunderground v.1.15,2013-03-24 16:44:00,
2013-03-24 11:48:00,27.1,23.5,30.07,WNW,291,2.0,5.0,86,0.00,,,0.01,Wunderground v.1.15,2013-03-24 16:48:00,
2013-03-24 11:49:00,27.1,23.5,30.07,WNW,292,2.0,5.0,86,0.00,,,0.01,Wunderground v.1.15,2013-03-24 16:49:00,
2013-03-24 11:54:00,27.2,23.6,30.07,NNW,337,3.0,5.0,86,0.00,,,0.01,Wunderground v.1.15,2013-03-24 16:54:00,
2013-03-24 11:59:00,27.3,23.7,30.07,NNW,340,2.0,6.0,86,0.00,,,0.01,Wunderground v.1.15,2013-03-24 16:59:00,
2013-03-24 12:00:00,27.3,23.7,30.07,NNW,329,3.0,3.0,86,0.00,,,0.01,Wunderground v.1.15,2013-03-24 17:00:00,
2013-03-24 12:01:00,27.3,23.7,30.07,WNW,290,2.0,6.0,86,0.00,,,0.01,Wunderground v.1.15,2013-03-24 17:01:00,
2013-03-24 12:04:00,27.4,23.8,30.07,NW,322,5.0,6.0,86,0.00,,,0.01,Wunderground v.1.15,2013-03-24 17:04:00,
2013-03-24 12:05:00,27.4,23.8,30.07,NW,317,1.0,6.0,86,0.00,,,0.01,Wunderground v.1.15,2013-03-24 17:05:00,
2013-03-24 12:08:00,27.4,23.8,30.07,NW,315,5.0,8.0,86,0.00,,,0.01,Wunderground v.1.15,2013-03-24 17:08:00,
2013-03-24 12:09:00,27.4,23.8,30.07,NW,326,4.0,8.0,86,0.00,,,0.01,Wunderground v.1.15,2013-03-24 17:09:00,
2013-03-24 12:11:00,27.3,23.4,30.07,NNW,333,2.0,5.0,85,0.00,,,0.01,Wunderground v.1.15,2013-03-24 17:11:00,
2013-03-24 12:13:00,27.3,23.7,30.07,NW,323,4.0,5.0,86,0.00,,,0.01,Wunderground v.1.15,2013-03-24 17:13:00,
2013-03-24 12:14:00,27.4,24.0,30.07,NNW,333,5.0,5.0,87,0.00,,,0.01,Wunderground v.1.15,2013-03-24 17:14:00,
2013-03-24 12:15:00,27.4,23.8,30.07,NW,325,4.0,5.0,86,0.00,,,0.01,Wunderground v.1.15,2013-03-24 17:15:00,
2013-03-24 12:16:00,27.4,23.8,30.07,NW,326,4.0,5.0,86,0.00,,,0.01,Wunderground v.1.15,2013-03-24 17:16:00,
2013-03-24 12:18:00,27.5,24.1,30.07,NNW,329,2.0,5.0,87,0.00,,,0.01,Wunderground v.1.15,2013-03-24 17:18:00,
2013-03-24 12:19:00,27.6,24.2,30.07,NW,321,1.0,3.0,87,0.00,,,0.01,Wunderground v.1.15,2013-03-24 17:19:00,
2013-03-24 12:21:00,27.8,24.4,30.07,WNW,286,2.0,3.0,87,0.00,,,0.01,Wunderground v.1.15,2013-03-24 17:21:00,
2013-03-24 12:22:00,27.8,24.4,30.07,WNW,286,2.0,3.0,87,0.00,,,0.01,Wunderground v.1.15,2013-03-24 17:22:00,
2013-03-24 12:23:00,27.9,24.3,30.07,WNW,292,3.0,3.0,86,0.00,,,0.01,Wunderground v.1.15,2013-03-24 17:23:00,
2013-03-24 12:24:00,27.9,24.3,30.07,NNW,336,0.0,4.0,86,0.00,,,0.01,Wunderground v.1.15,2013-03-24 17:24:00,
2013-03-24 12:26:00,28.0,24.4,30.07,NW,309,3.0,4.0,86,0.00,,,0.01,Wunderground v.1.15,2013-03-24 17:26:00,
2013-03-24 12:27:00,28.0,24.4,30.07,NNE,21,4.0,6.0,86,0.00,,,0.01,Wunderground v.1.15,2013-03-24 17:27:00,
2013-03-24 12:29:00,28.1,24.5,30.07,NW,321,3.0,6.0,86,0.00,,,0.01,Wunderground v.1.15,2013-03-24 17:29:00,
2013-03-24 12:32:00,28.2,24.8,30.07,NNW,331,3.0,6.0,87,0.00,,,0.01,Wunderground v.1.15,2013-03-24 17:32:00,
2013-03-24 12:33:00,28.2,24.6,30.07,NNW,327,5.0,6.0,86,0.00,,,0.01,Wunderground v.1.15,2013-03-24 17:33:00,
2013-03-24 12:34:00,28.2,24.6,30.07,NNW,327,1.0,6.0,86,0.00,,,0.01,Wunderground v.1.15,2013-03-24 17:34:00,
2013-03-24 12:37:00,28.3,24.9,30.06,WNW,294,2.0,6.0,87,0.00,,,0.01,Wunderground v.1.15,2013-03-24 17:37:00,
2013-03-24 12:38:00,28.4,25.0,30.06,NW,306,2.0,6.0,87,0.00,,,0.01,Wunderground v.1.15,2013-03-24 17:38:00,
2013-03-24 12:40:00,28.6,25.2,30.06,NW,317,1.0,2.0,87,0.00,,,0.01,Wunderground v.1.15,2013-03-24 17:40:00,
2013-03-24 12:42:00,28.7,25.3,30.06,NW,314,4.0,4.0,87,0.00,,,0.01,Wunderground v.1.15,2013-03-24 17:42:00,
2013-03-24 12:43:00,28.7,25.3,30.06,NNW,329,2.0,5.0,87,0.00,,,0.01,Wunderground v.1.15,2013-03-24 17:43:00,
2013-03-24 12:44:00,28.7,25.3,30.06,NNW,329,3.0,5.0,87,0.00,,,0.01,Wunderground v.1.15,2013-03-24 17:44:00,
2013-03-24 12:45:00,28.7,25.3,30.06,NW,315,1.0,5.0,87,0.00,,,0.01,Wunderground v.1.15,2013-03-24 17:45:00,
2013-03-24 12:48:00,28.7,25.0,30.06,NW,311,2.0,5.0,86,0.00,,,0.01,Wunderground v.1.15,2013-03-24 17:48:00,
2013-03-24 12:49:00,28.7,25.0,30.06,NW,316,1.0,5.0,86,0.00,,,0.01,Wunderground v.1.15,2013-03-24 17:49:00,
2013-03-24 12:50:00,28.7,25.0,30.06,WNW,298,2.0,4.0,86,0.00,,,0.01,Wunderground v.1.15,2013-03-24 17:50:00,
2013-03-24 12:53:00,28.7,25.0,30.06,NNW,330,3.0,5.0,86,0.00,,,0.01,Wunderground v.1.15,2013-03-24 17:53:00,
2013-03-24 12:54:00,28.6,24.9,30.06,NW,322,2.0,5.0,86,0.00,,,0.01,Wunderground v.1.15,2013-03-24 17:54:00,
2013-03-24 12:56:00,28.5,24.8,30.06,NW,323,0.0,7.0,86,0.00,,,0.01,Wunderground v.1.15,2013-03-24 17:56:00,
2013-03-24 12:58:00,28.5,24.8,30.06,WNW,300,0.0,7.0,86,0.00,,,0.01,Wunderground v.1.15,2013-03-24 17:58:00,
2013-03-24 12:59:00,28.6,24.9,30.06,NW,325,3.0,7.0,86,0.00,,,0.01,Wunderground v.1.15,2013-03-24 17:59:00,
2013-03-24 13:01:00,28.5,24.6,30.06,NNW,327,1.0,5.0,85,0.00,,,0.01,Wunderground v.1.15,2013-03-24 18:01:00,
2013-03-24 13:03:00,28.6,24.9,30.06,NW,316,2.0,6.0,86,0.00,,,0.01,Wunderground v.1.15,2013-03-24 18:03:00,
2013-03-24 13:04:00,28.6,24.9,30.06,NNW,337,3.0,6.0,86,0.00,,,0.01,Wunderground v.1.15,2013-03-24 18:04:00,
2013-03-24 13:07:00,28.8,25.1,30.06,NW,315,3.0,6.0,86,0.00,,,0.01,Wunderground v.1.15,2013-03-24 18:07:00,
2013-03-24 13:08:00,28.8,25.1,30.06,NNW,340,4.0,6.0,86,0.00,,,0.01,Wunderground v.1.15,2013-03-24 18:08:00,
2013-03-24 13:09:00,28.8,25.1,30.06,NNW,332,5.0,6.0,86,0.00,,,0.01,Wunderground v.1.15,2013-03-24 18:09:00,
2013-03-24 13:12:00,28.7,26.7,30.06,NW,321,0.0,6.0,92,0.00,,,0.01,Wunderground v.1.15,2013-03-24 18:12:00,
2013-03-24 13:14:00,28.6,24.7,30.06,NNW,327,0.0,6.0,85,0.00,,,0.01,Wunderground v.1.15,2013-03-24 18:14:00,
2013-03-24 13:15:00,28.6,24.9,30.06,NNW,328,2.0,6.0,86,0.00,,,0.01,Wunderground v.1.15,2013-03-24 18:15:00,
2013-03-24 13:18:00,28.6,24.9,30.06,NW,319,1.0,7.0,86,0.00,,,0.01,Wunderground v.1.15,2013-03-24 18:18:00,
2013-03-24 13:19:00,28.7,25.0,30.06,NW,318,1.0,7.0,86,0.00,,,0.01,Wunderground v.1.15,2013-03-24 18:19:00,
2013-03-24 13:20:00,28.7,25.0,30.06,NW,323,3.0,7.0,86,0.00,,,0.01,Wunderground v.1.15,2013-03-24 18:20:00,
2013-03-24 13:24:00,28.6,24.7,30.05,SW,232,1.0,7.0,85,0.00,,,0.01,Wunderground v.1.15,2013-03-24 18:24:00,
2013-03-24 13:25:00,28.6,24.9,30.05,NW,313,5.0,7.0,86,0.00,,,0.01,Wunderground v.1.15,2013-03-24 18:25:00,
2013-03-24 13:27:00,28.7,25.0,30.05,NW,323,6.0,8.0,86,0.00,,,0.01,Wunderground v.1.15,2013-03-24 18:27:00,
2013-03-24 13:29:00,28.8,25.1,30.05,NW,314,2.0,8.0,86,0.00,,,0.01,Wunderground v.1.15,2013-03-24 18:29:00,
2013-03-24 13:31:00,28.8,25.1,30.05,NW,325,1.0,5.0,86,0.00,,,0.01,Wunderground v.1.15,2013-03-24 18:31:00,
2013-03-24 13:32:00,28.9,25.2,30.05,NNW,329,3.0,5.0,86,0.00,,,0.01,Wunderground v.1.15,2013-03-24 18:32:00,
2013-03-24 13:35:00,29.2,25.8,30.05,NW,326,2.0,5.0,87,0.00,,,0.01,Wunderground v.1.15,2013-03-24 18:35:00,
2013-03-24 13:37:00,29.2,25.5,30.05,NW,304,2.0,5.0,86,0.00,,,0.01,Wunderground v.1.15,2013-03-24 18:37:00,
2013-03-24 13:38:00,29.2,25.5,30.05,NW,304,0.0,5.0,86,0.00,,,0.01,Wunderground v.1.15,2013-03-24 18:38:00,
2013-03-24 13:40:00,29.3,25.6,30.05,NW,322,4.0,4.0,86,0.00,,,0.01,Wunderground v.1.15,2013-03-24 18:40:00,
2013-03-24 13:43:00,29.4,25.7,30.05,NW,318,2.0,4.0,86,0.00,,,0.01,Wunderground v.1.15,2013-03-24 18:43:00,
2013-03-24 13:45:00,29.3,25.6,30.05,NNW,329,3.0,5.0,86,0.00,,,0.01,Wunderground v.1.15,2013-03-24 18:45:00,
2013-03-24 13:48:00,29.3,25.6,30.05,WNW,288,2.0,5.0,86,0.00,,,0.01,Wunderground v.1.15,2013-03-24 18:48:00,
2013-03-24 13:49:00,29.3,25.6,30.05,NNW,329,2.0,5.0,86,0.00,,,0.01,Wunderground v.1.15,2013-03-24 18:49:00,
2013-03-24 13:50:00,29.3,25.4,30.05,NNW,329,1.0,5.0,85,0.00,,,0.01,Wunderground v.1.15,2013-03-24 18:50:00,
2013-03-24 13:51:00,29.2,25.3,30.05,NNW,329,0.0,5.0,85,0.00,,,0.01,Wunderground v.1.15,2013-03-24 18:51:00,
2013-03-24 13:53:00,29.3,25.6,30.05,NW,314,5.0,6.0,86,0.00,,,0.01,Wunderground v.1.15,2013-03-24 18:53:00,
2013-03-24 13:55:00,29.3,25.6,30.04,NW,323,3.0,6.0,86,0.00,,,0.01,Wunderground v.1.15,2013-03-24 18:55:00,
2013-03-24 13:57:00,29.3,25.6,30.05,WNW,286,0.0,6.0,86,0.00,,,0.01,Wunderground v.1.15,2013-03-24 18:57:00,
2013-03-24 13:58:00,29.3,25.6,30.04,NW,321,1.0,6.0,86,0.00,,,0.01,Wunderground v.1.15,2013-03-24 18:58:00,
2013-03-24 14:00:00,29.4,25.7,30.04,NW,318,1.0,3.0,86,0.00,,,0.01,Wunderground v.1.15,2013-03-24 19:00:00,
2013-03-24 14:02:00,29.4,25.7,30.04,NW,325,2.0,6.0,86,0.00,,,0.01,Wunderground v.1.15,2013-03-24 19:02:00,
2013-03-24 14:04:00,29.4,25.7,30.04,NW,317,2.0,6.0,86,0.00,,,0.01,Wunderground v.1.15,2013-03-24 19:04:00,
2013-03-24 14:05:00,29.4,25.7,30.04,NW,319,3.0,6.0,86,0.00,,,0.01,Wunderground v.1.15,2013-03-24 19:05:00,
2013-03-24 14:07:00,29.4,25.7,30.04,NNW,331,3.0,6.0,86,0.00,,,0.01,Wunderground v.1.15,2013-03-24 19:07:00,
2013-03-24 14:10:00,29.5,26.1,30.04,NW,323,6.0,6.0,87,0.00,,,0.01,Wunderground v.1.15,2013-03-24 19:10:00,
2013-03-24 14:12:00,29.4,25.7,30.04,NW,321,5.0,6.0,86,0.00,,,0.01,Wunderground v.1.15,2013-03-24 19:12:00,
2013-03-24 14:15:00,29.2,25.5,30.04,NW,319,2.0,6.0,86,0.00,,,0.01,Wunderground v.1.15,2013-03-24 19:15:00,
2013-03-24 14:17:00,29.3,25.9,30.04,NW,325,3.0,6.0,87,0.00,,,0.01,Wunderground v.1.15,2013-03-24 19:17:00,
2013-03-24 14:19:00,29.4,26.0,30.04,NW,316,3.0,3.0,87,0.00,,,0.01,Wunderground v.1.15,2013-03-24 19:19:00,
2013-03-24 14:20:00,29.4,26.0,30.04,NNW,327,4.0,5.0,87,0.00,,,0.01,Wunderground v.1.15,2013-03-24 19:20:00,
2013-03-24 14:22:00,29.4,25.7,30.04,NW,311,2.0,5.0,86,0.00,,,0.01,Wunderground v.1.15,2013-03-24 19:22:00,
2013-03-24 14:23:00,29.3,25.6,30.04,NNW,343,1.0,6.0,86,0.00,,,0.01,Wunderground v.1.15,2013-03-24 19:23:00,
2013-03-24 14:25:00,29.4,25.7,30.04,NNW,333,1.0,6.0,86,0.00,,,0.01,Wunderground v.1.15,2013-03-24 19:25:00,
2013-03-24 14:26:00,29.3,25.6,30.04,NW,310,5.0,6.0,86,0.00,,,0.01,Wunderground v.1.15,2013-03-24 19:26:00,
2013-03-24 14:28:00,29.3,25.6,30.04,NW,321,3.0,6.0,86,0.00,,,0.01,Wunderground v.1.15,2013-03-24 19:28:00,
2013-03-24 14:31:00,29.4,25.7,30.03,NNW,328,1.0,5.0,86,0.00,,,0.01,Wunderground v.1.15,2013-03-24 19:31:00,
2013-03-24 14:32:00,29.4,25.7,30.04,WNW,303,1.0,6.0,86,0.00,,,0.01,Wunderground v.1.15,2013-03-24 19:32:00,
2013-03-24 14:33:00,29.4,25.7,30.04,NW,317,5.0,6.0,86,0.00,,,0.01,Wunderground v.1.15,2013-03-24 19:33:00,
2013-03-24 14:37:00,29.4,25.7,30.03,NNW,331,2.0,6.0,86,0.00,,,0.01,Wunderground v.1.15,2013-03-24 19:37:00,
2013-03-24 14:38:00,29.4,25.7,30.03,NNW,329,5.0,6.0,86,0.00,,,0.01,Wunderground v.1.15,2013-03-24 19:38:00,
2013-03-24 14:39:00,29.4,25.7,30.03,NW,325,4.0,6.0,86,0.00,,,0.01,Wunderground v.1.15,2013-03-24 19:39:00,
2013-03-24 14:42:00,29.4,25.7,30.03,NW,319,5.0,5.0,86,0.00,,,0.01,Wunderground v.1.15,2013-03-24 19:42:00,
2013-03-24 14:43:00,29.4,25.7,30.03,NW,323,3.0,5.0,86,0.00,,,0.01,Wunderground v.1.15,2013-03-24 19:43:00,
2013-03-24 14:44:00,29.4,25.7,30.03,NW,319,3.0,5.0,86,0.00,,,0.01,Wunderground v.1.15,2013-03-24 19:44:00,
2013-03-24 14:47:00,29.4,25.7,30.03,NW,324,2.0,6.0,86,0.00,,,0.01,Wunderground v.1.15,2013-03-24 19:47:00,
2013-03-24 14:48:00,29.4,25.7,30.03,NNW,347,2.0,6.0,86,0.00,,,0.01,Wunderground v.1.15,2013-03-24 19:48:00,
2013-03-24 14:49:00,29.4,25.7,30.03,NW,323,5.0,6.0,86,0.00,,,0.01,Wunderground v.1.15,2013-03-24 19:49:00,
2013-03-24 14:50:00,29.4,25.7,30.03,NW,325,3.0,4.0,86,0.00,,,0.01,Wunderground v.1.15,2013-03-24 19:50:00,
2013-03-24 14:53:00,29.5,25.8,30.03,NW,311,2.0,4.0,86,0.00,,,0.01,Wunderground v.1.15,2013-03-24 19:53:00,
2013-03-24 14:54:00,29.5,25.8,30.03,NW,325,1.0,6.0,86,0.00,,,0.01,Wunderground v.1.15,2013-03-24 19:54:00,
2013-03-24 14:55:00,29.5,25.8,30.03,WSW,248,1.0,6.0,86,0.00,,,0.01,Wunderground v.1.15,2013-03-24 19:55:00,
2013-03-24 14:58:00,29.6,25.9,30.03,NW,325,2.0,6.0,86,0.00,,,0.01,Wunderground v.1.15,2013-03-24 19:58:00,
2013-03-24 14:59:00,29.5,25.8,30.03,NW,322,1.0,6.0,86,0.00,,,0.01,Wunderground v.1.15,2013-03-24 19:59:00,
2013-03-24 15:00:00,29.5,25.8,30.03,NW,325,5.0,5.0,86,0.00,,,0.01,Wunderground v.1.15,2013-03-24 20:00:00,
2013-03-24 15:03:00,29.4,25.4,30.03,NW,324,7.0,7.0,85,0.00,,,0.01,Wunderground v.1.15,2013-03-24 20:03:00,
2013-03-24 15:04:00,29.3,25.6,30.03,NW,325,0.0,7.0,86,0.00,,,0.01,Wunderground v.1.15,2013-03-24 20:04:00,
2013-03-24 15:05:00,29.3,25.6,30.03,NW,322,2.0,7.0,86,0.00,,,0.01,Wunderground v.1.15,2013-03-24 20:05:00,
2013-03-24 15:08:00,29.4,26.0,30.03,NW,323,1.0,7.0,87,0.00,,,0.01,Wunderground v.1.15,2013-03-24 20:08:00,
2013-03-24 15:09:00,29.4,26.0,30.03,NNW,330,3.0,7.0,87,0.00,,,0.01,Wunderground v.1.15,2013-03-24 20:09:00,
2013-03-24 15:11:00,29.5,26.1,30.03,NNW,333,4.0,4.0,87,0.00,,,0.01,Wunderground v.1.15,2013-03-24 20:11:00,
2013-03-24 15:13:00,29.5,26.1,30.03,NW,321,3.0,4.0,87,0.00,,,0.01,Wunderground v.1.15,2013-03-24 20:13:00,
2013-03-24 15:14:00,29.5,26.1,30.03,NNW,330,6.0,6.0,87,0.00,,,0.01,Wunderground v.1.15,2013-03-24 20:14:00,
2013-03-24 15:15:00,29.4,25.7,30.03,NNW,336,5.0,6.0,86,0.00,,,0.01,Wunderground v.1.15,2013-03-24 20:15:00,
2013-03-24 15:16:00,29.4,25.7,30.03,NW,315,4.0,6.0,86,0.00,,,0.01,Wunderground v.1.15,2013-03-24 20:16:00,
2013-03-24 15:18:00,29.3,25.9,30.03,NW,320,3.0,6.0,87,0.00,,,0.01,Wunderground v.1.15,2013-03-24 20:18:00,
2013-03-24 15:20:00,29.3,25.9,30.03,NNW,328,4.0,4.0,87,0.00,,,0.01,Wunderground v.1.15,2013-03-24 20:20:00,
2013-03-24 15:21:00,29.3,25.9,30.03,NNW,328,4.0,4.0,87,0.00,,,0.01,Wunderground v.1.15,2013-03-24 20:21:00,
2013-03-24 15:23:00,29.3,25.9,30.03,NW,312,2.0,5.0,87,0.00,,,0.01,Wunderground v.1.15,2013-03-24 20:23:00,
2013-03-24 15:25:00,29.3,25.9,30.03,NW,312,1.0,5.0,87,0.00,,,0.01,Wunderground v.1.15,2013-03-24 20:25:00,
2013-03-24 15:26:00,29.3,25.9,30.03,NW,312,2.0,5.0,87,0.00,,,0.01,Wunderground v.1.15,2013-03-24 20:26:00,
2013-03-24 15:27:00,29.3,25.9,30.03,NW,318,2.0,5.0,87,0.00,,,0.01,Wunderground v.1.15,2013-03-24 20:27:00,
2013-03-24 15:28:00,29.3,25.9,30.03,NW,318,1.0,5.0,87,0.00,,,0.01,Wunderground v.1.15,2013-03-24 20:28:00,
2013-03-24 15:32:00,29.2,25.8,30.03,NW,314,3.0,6.0,87,0.00,,,0.01,Wunderground v.1.15,2013-03-24 20:32:00,
2013-03-24 15:33:00,29.2,25.8,30.03,NW,321,2.0,6.0,87,0.00,,,0.01,Wunderground v.1.15,2013-03-24 20:33:00,
2013-03-24 15:34:00,29.2,25.8,30.03,NW,319,2.0,6.0,87,0.00,,,0.01,Wunderground v.1.15,2013-03-24 20:34:00,
2013-03-24 15:37:00,29.1,25.7,30.03,NNW,327,4.0,6.0,87,0.00,,,0.01,Wunderground v.1.15,2013-03-24 20:37:00,
2013-03-24 15:38:00,29.1,25.7,30.03,NNW,327,2.0,6.0,87,0.00,,,0.01,Wunderground v.1.15,2013-03-24 20:38:00,
2013-03-24 15:40:00,29.2,26.1,30.03,NW,314,1.0,6.0,88,0.00,,,0.01,Wunderground v.1.15,2013-03-24 20:40:00,
2013-03-24 15:43:00,29.3,25.9,30.03,WNW,303,5.0,5.0,87,0.00,,,0.01,Wunderground v.1.15,2013-03-24 20:43:00,
2013-03-24 15:44:00,29.3,25.9,30.03,NW,318,4.0,5.0,87,0.00,,,0.01,Wunderground v.1.15,2013-03-24 20:44:00,
2013-03-24 15:45:00,29.3,25.9,30.03,NW,315,4.0,6.0,87,0.00,,,0.01,Wunderground v.1.15,2013-03-24 20:45:00,
2013-03-24 15:48:00,29.3,25.6,30.03,NNW,331,3.0,6.0,86,0.00,,,0.01,Wunderground v.1.15,2013-03-24 20:48:00,
2013-03-24 15:49:00,29.3,25.6,30.03,NW,314,4.0,6.0,86,0.00,,,0.01,Wunderground v.1.15,2013-03-24 20:49:00,
2013-03-24 15:51:00,29.3,25.6,30.03,NW,325,1.0,6.0,86,0.00,,,0.01,Wunderground v.1.15,2013-03-24 20:51:00,
2013-03-24 15:53:00,29.4,25.7,30.03,NNW,337,6.0,6.0,86,0.00,,,0.01,Wunderground v.1.15,2013-03-24 20:53:00,
2013-03-24 15:54:00,29.5,26.1,30.03,NW,321,2.0,6.0,87,0.00,,,0.01,Wunderground v.1.15,2013-03-24 20:54:00,
2013-03-24 15:57:00,29.7,26.3,30.03,NNW,336,0.0,6.0,87,0.00,,,0.01,Wunderground v.1.15,2013-03-24 20:57:00,
2013-03-24 15:58:00,29.7,26.3,30.03,NNW,327,3.0,6.0,87,0.00,,,0.01,Wunderground v.1.15,2013-03-24 20:58:00,
2013-03-24 15:59:00,29.8,26.4,30.03,NW,325,3.0,6.0,87,0.00,,,0.01,Wunderground v.1.15,2013-03-24 20:59:00,
2013-03-24 16:03:00,29.8,26.1,30.03,NNW,330,3.0,5.0,86,0.00,,,0.01,Wunderground v.1.15,2013-03-24 21:03:00,
2013-03-24 16:04:00,29.8,26.1,30.03,NNW,330,3.0,5.0,86,0.00,,,0.01,Wunderground v.1.15,2013-03-24 21:04:00,
2013-03-24 16:08:00,29.9,26.2,30.03,NW,305,2.0,5.0,86,0.00,,,0.01,Wunderground v.1.15,2013-03-24 21:08:00,
2013-03-24 16:09:00,29.9,25.9,30.03,NNE,16,2.0,5.0,85,0.00,,,0.01,Wunderground v.1.15,2013-03-24 21:09:00,
2013-03-24 16:14:00,29.9,25.9,30.03,NW,325,3.0,7.0,85,0.00,,,0.01,Wunderground v.1.15,2013-03-24 21:14:00,
2013-03-24 16:15:00,29.8,25.8,30.03,NW,308,3.0,7.0,85,0.00,,,0.01,Wunderground v.1.15,2013-03-24 21:15:00,
2013-03-24 16:19:00,29.7,26.0,30.03,NNW,339,0.0,7.0,86,0.00,,,0.01,Wunderground v.1.15,2013-03-24 21:19:00,
2013-03-24 16:21:00,29.8,26.1,30.03,NNW,330,2.0,4.0,86,0.00,,,0.01,Wunderground v.1.15,2013-03-24 21:21:00,
2013-03-24 16:24:00,29.8,25.8,30.03,NW,323,0.0,5.0,85,0.00,,,0.01,Wunderground v.1.15,2013-03-24 21:24:00,
2013-03-24 16:25:00,29.8,25.8,30.03,NW,323,0.0,5.0,85,0.00,,,0.01,Wunderground v.1.15,2013-03-24 21:25:00,
2013-03-24 16:27:00,29.9,25.9,30.03,NNE,19,1.0,5.0,85,0.00,,,0.01,Wunderground v.1.15,2013-03-24 21:27:00,
2013-03-24 16:29:00,29.9,25.9,30.03,NW,326,2.0,3.0,85,0.00,,,0.01,Wunderground v.1.15,2013-03-24 21:29:00,
2013-03-24 16:30:00,29.9,25.9,30.03,NNW,327,4.0,5.0,85,0.00,,,0.01,Wunderground v.1.15,2013-03-24 21:30:00,
2013-03-24 16:32:00,29.9,25.9,30.03,NNW,346,2.0,5.0,85,0.00,,,0.01,Wunderground v.1.15,2013-03-24 21:32:00,
2013-03-24 16:35:00,29.9,25.4,30.03,North,5,2.0,6.0,83,0.00,,,0.01,Wunderground v.1.15,2013-03-24 21:35:00,
2013-03-24 16:36:00,29.9,25.7,30.03,NNE,32,6.0,6.0,84,0.00,,,0.01,Wunderground v.1.15,2013-03-24 21:36:00,
2013-03-24 16:38:00,29.8,25.3,30.03,NNW,339,1.0,6.0,83,0.00,,,0.01,Wunderground v.1.15,2013-03-24 21:38:00,
2013-03-24 16:40:00,29.8,25.6,30.03,NNE,30,2.0,5.0,84,0.00,,,0.01,Wunderground v.1.15,2013-03-24 21:40:00,
2013-03-24 16:41:00,29.8,25.3,30.03,NNE,30,3.0,5.0,83,0.00,,,0.01,Wunderground v.1.15,2013-03-24 21:41:00,
2013-03-24 16:42:00,29.8,25.3,30.03,NW,308,2.0,5.0,83,0.00,,,0.01,Wunderground v.1.15,2013-03-24 21:42:00,
2013-03-24 16:43:00,29.8,25.3,30.03,NE,43,1.0,5.0,83,0.00,,,0.01,Wunderground v.1.15,2013-03-24 21:43:00,
2013-03-24 16:45:00,29.8,25.3,30.03,North,5,1.0,5.0,83,0.00,,,0.01,Wunderground v.1.15,2013-03-24 21:45:00,
2013-03-24 16:46:00,29.8,25.3,30.03,North,5,0.0,5.0,83,0.00,,,0.01,Wunderground v.1.15,2013-03-24 21:46:00,
2013-03-24 16:47:00,29.8,25.6,30.03,NE,53,2.0,5.0,84,0.00,,,0.01,Wunderground v.1.15,2013-03-24 21:47:00,
2013-03-24 16:48:00,29.8,25.6,30.03,NNE,22,4.0,5.0,84,0.00,,,0.01,Wunderground v.1.15,2013-03-24 21:48:00,
2013-03-24 16:50:00,29.7,25.2,30.03,NNW,337,2.0,7.0,83,0.00,,,0.01,Wunderground v.1.15,2013-03-24 21:50:00,
2013-03-24 16:51:00,29.7,25.2,30.03,North,360,2.0,7.0,83,0.00,,,0.01,Wunderground v.1.15,2013-03-24 21:51:00,
2013-03-24 16:53:00,29.7,25.2,30.03,NNE,13,1.0,7.0,83,0.00,,,0.01,Wunderground v.1.15,2013-03-24 21:53:00,
2013-03-24 16:56:00,29.6,25.1,30.03,NW,325,1.0,7.0,83,0.00,,,0.01,Wunderground v.1.15,2013-03-24 21:56:00,
2013-03-24 16:57:00,29.6,25.4,30.03,NW,325,2.0,7.0,84,0.00,,,0.01,Wunderground v.1.15,2013-03-24 21:57:00,
2013-03-24 16:58:00,29.6,25.4,30.03,NW,326,2.0,7.0,84,0.00,,,0.01,Wunderground v.1.15,2013-03-24 21:58:00,
2013-03-24 17:01:00,29.5,25.3,30.03,North,360,4.0,4.0,84,0.00,,,0.01,Wunderground v.1.15,2013-03-24 22:01:00,
2013-03-24 17:02:00,29.5,25.3,30.03,NW,318,4.0,4.0,84,0.00,,,0.01,Wunderground v.1.15,2013-03-24 22:02:00,
2013-03-24 17:04:00,29.4,25.2,30.03,NW,321,4.0,6.0,84,0.00,,,0.01,Wunderground v.1.15,2013-03-24 22:04:00,
2013-03-24 17:05:00,29.4,25.2,30.03,NW,318,2.0,6.0,84,0.00,,,0.01,Wunderground v.1.15,2013-03-24 22:05:00,
2013-03-24 17:06:00,29.4,25.2,30.03,NW,318,0.0,6.0,84,0.00,,,0.01,Wunderground v.1.15,2013-03-24 22:06:00,
2013-03-24 17:07:00,29.4,25.2,30.03,NNW,340,3.0,6.0,84,0.00,,,0.01,Wunderground v.1.15,2013-03-24 22:07:00,
2013-03-24 17:09:00,29.3,25.1,30.03,North,355,4.0,6.0,84,0.00,,,0.01,Wunderground v.1.15,2013-03-24 22:09:00,
2013-03-24 17:10:00,29.3,25.1,30.03,NNW,337,0.0,4.0,84,0.00,,,0.01,Wunderground v.1.15,2013-03-24 22:10:00,
2013-03-24 17:11:00,29.3,25.1,30.03,NE,36,3.0,4.0,84,0.00,,,0.01,Wunderground v.1.15,2013-03-24 22:11:00,
2013-03-24 17:12:00,29.3,25.1,30.03,North,360,6.0,6.0,84,0.00,,,0.01,Wunderground v.1.15,2013-03-24 22:12:00,
2013-03-24 17:15:00,29.2,24.7,30.03,WNW,296,4.0,8.0,83,0.00,,,0.01,Wunderground v.1.15,2013-03-24 22:15:00,
2013-03-24 17:16:00,29.2,25.0,30.03,NNW,340,3.0,8.0,84,0.00,,,0.01,Wunderground v.1.15,2013-03-24 22:16:00,
2013-03-24 17:17:00,29.2,25.0,30.03,NW,323,5.0,8.0,84,0.00,,,0.01,Wunderground v.1.15,2013-03-24 22:17:00,
2013-03-24 17:20:00,29.1,24.9,30.03,NNW,333,2.0,3.0,84,0.00,,,0.01,Wunderground v.1.15,2013-03-24 22:20:00,
2013-03-24 17:22:00,29.2,25.3,30.03,NW,321,0.0,3.0,85,0.00,,,0.01,Wunderground v.1.15,2013-03-24 22:22:00,
2013-03-24 17:25:00,29.2,25.0,30.03,NNW,345,1.0,6.0,84,0.00,,,0.01,Wunderground v.1.15,2013-03-24 22:25:00,
2013-03-24 17:27:00,29.2,25.0,30.03,NW,315,1.0,8.0,84,0.00,,,0.01,Wunderground v.1.15,2013-03-24 22:27:00,
2013-03-24 17:28:00,29.2,25.0,30.03,NNW,329,4.0,8.0,84,0.00,,,0.01,Wunderground v.1.15,2013-03-24 22:28:00,
2013-03-24 17:31:00,29.3,25.1,30.03,NE,41,3.0,9.0,84,0.00,,,0.01,Wunderground v.1.15,2013-03-24 22:31:00,
2013-03-24 17:32:00,29.3,25.1,30.03,North,5,2.0,9.0,84,0.00,,,0.01,Wunderground v.1.15,2013-03-24 22:32:00,
2013-03-24 17:33:00,29.3,25.1,30.03,WNW,299,3.0,9.0,84,0.00,,,0.01,Wunderground v.1.15,2013-03-24 22:33:00,
2013-03-24 17:36:00,29.4,25.4,30.04,NW,322,4.0,9.0,85,0.00,,,0.01,Wunderground v.1.15,2013-03-24 22:36:00,
2013-03-24 17:38:00,29.4,25.4,30.04,NW,325,4.0,9.0,85,0.00,,,0.01,Wunderground v.1.15,2013-03-24 22:38:00,
2013-03-24 17:42:00,29.3,25.4,30.04,NW,325,6.0,7.0,85,0.00,,,0.01,Wunderground v.1.15,2013-03-24 22:42:00,
2013-03-24 17:43:00,29.3,25.4,30.04,NW,319,5.0,7.0,85,0.00,,,0.01,Wunderground v.1.15,2013-03-24 22:43:00,
2013-03-24 17:44:00,29.3,25.4,30.04,NNW,332,6.0,7.0,85,0.00,,,0.01,Wunderground v.1.15,2013-03-24 22:44:00,
2013-03-24 17:47:00,29.2,25.5,30.04,North,355,2.0,7.0,86,0.00,,,0.01,Wunderground v.1.15,2013-03-24 22:47:00,
2013-03-24 17:48:00,29.2,25.5,30.04,NW,316,3.0,7.0,86,0.00,,,0.01,Wunderground v.1.15,2013-03-24 22:48:00,
2013-03-24 17:49:00,29.2,25.5,30.04,NW,318,3.0,7.0,86,0.00,,,0.01,Wunderground v.1.15,2013-03-24 22:49:00,
2013-03-24 17:52:00,29.2,25.8,30.04,NNW,333,6.0,6.0,87,0.00,,,0.01,Wunderground v.1.15,2013-03-24 22:52:00,
2013-03-24 17:54:00,29.1,25.7,30.04,NNW,327,2.0,6.0,87,0.00,,,0.01,Wunderground v.1.15,2013-03-24 22:54:00,
2013-03-24 17:55:00,29.0,25.3,30.04,NW,318,5.0,6.0,86,0.00,,,0.01,Wunderground v.1.15,2013-03-24 22:55:00,
2013-03-24 17:58:00,28.9,25.2,30.04,NW,306,3.0,6.0,86,0.00,,,0.01,Wunderground v.1.15,2013-03-24 22:58:00,
2013-03-24 17:59:00,28.9,25.5,30.05,NW,324,4.0,6.0,87,0.00,,,0.01,Wunderground v.1.15,2013-03-24 22:59:00,
2013-03-24 18:00:00,28.9,25.5,30.04,NW,318,4.0,5.0,87,0.00,,,0.01,Wunderground v.1.15,2013-03-24 23:00:00,
2013-03-24 18:03:00,28.8,25.4,30.05,NW,323,5.0,6.0,87,0.00,,,0.01,Wunderground v.1.15,2013-03-24 23:03:00,
2013-03-24 18:04:00,28.8,25.4,30.05,NW,326,4.0,6.0,87,0.00,,,0.01,Wunderground v.1.15,2013-03-24 23:04:00,
2013-03-24 18:05:00,28.7,25.3,30.05,NW,324,4.0,6.0,87,0.00,,,0.01,Wunderground v.1.15,2013-03-24 23:05:00,
2013-03-24 18:06:00,28.7,25.3,30.05,NW,323,4.0,6.0,87,0.00,,,0.01,Wunderground v.1.15,2013-03-24 23:06:00,
2013-03-24 18:09:00,28.6,25.5,30.05,NW,325,5.0,6.0,88,0.00,,,0.01,Wunderground v.1.15,2013-03-24 23:09:00,
2013-03-24 18:10:00,28.6,25.5,30.05,NW,318,3.0,5.0,88,0.00,,,0.01,Wunderground v.1.15,2013-03-24 23:10:00,
2013-03-24 18:11:00,28.5,25.4,30.05,NNW,333,3.0,6.0,88,0.00,,,0.01,Wunderground v.1.15,2013-03-24 23:11:00,
2013-03-24 18:14:00,28.5,25.4,30.05,NNW,333,3.0,6.0,88,0.00,,,0.01,Wunderground v.1.15,2013-03-24 23:14:00,
2013-03-24 18:15:00,28.5,25.4,30.05,NNW,333,3.0,6.0,88,0.00,,,0.01,Wunderground v.1.15,2013-03-24 23:15:00,
2013-03-24 18:16:00,28.5,25.4,30.05,NNW,333,3.0,6.0,88,0.00,,,0.01,Wunderground v.1.15,2013-03-24 23:16:00,
2013-03-24 18:19:00,28.3,25.5,30.05,NNW,328,3.0,6.0,89,0.00,,,0.01,Wunderground v.1.15,2013-03-24 23:19:00,
2013-03-24 18:20:00,28.3,25.5,30.05,NW,317,3.0,6.0,89,0.00,,,0.01,Wunderground v.1.15,2013-03-24 23:20:00,
2013-03-24 18:21:00,28.3,25.5,30.05,NNW,327,3.0,6.0,89,0.00,,,0.01,Wunderground v.1.15,2013-03-24 23:21:00,
2013-03-24 18:24:00,28.3,25.5,30.05,NW,312,3.0,6.0,89,0.00,,,0.01,Wunderground v.1.15,2013-03-24 23:24:00,
2013-03-24 18:25:00,28.3,25.5,30.05,NW,322,5.0,6.0,89,0.00,,,0.01,Wunderground v.1.15,2013-03-24 23:25:00,
2013-03-24 18:26:00,28.3,25.5,30.05,NW,317,4.0,7.0,89,0.00,,,0.01,Wunderground v.1.15,2013-03-24 23:26:00,
2013-03-24 18:27:00,28.2,25.4,30.05,NW,325,4.0,7.0,89,0.00,,,0.01,Wunderground v.1.15,2013-03-24 23:27:00,
2013-03-24 18:29:00,28.2,25.4,30.05,NW,316,2.0,3.0,89,0.00,,,0.01,Wunderground v.1.15,2013-03-24 23:29:00,
2013-03-24 18:31:00,28.2,25.4,30.05,NW,326,5.0,7.0,89,0.00,,,0.01,Wunderground v.1.15,2013-03-24 23:31:00,
2013-03-24 18:32:00,28.2,25.4,30.05,NNW,344,5.0,7.0,89,0.00,,,0.01,Wunderground v.1.15,2013-03-24 23:32:00,
2013-03-24 18:34:00,28.1,25.3,30.05,NW,312,4.0,7.0,89,0.00,,,0.01,Wunderground v.1.15,2013-03-24 23:34:00,
2013-03-24 18:36:00,28.1,25.3,30.05,NW,309,4.0,7.0,89,0.00,,,0.01,Wunderground v.1.15,2013-03-24 23:36:00,
2013-03-24 18:37:00,28.1,25.3,30.05,NW,315,4.0,7.0,89,0.00,,,0.01,Wunderground v.1.15,2013-03-24 23:37:00,
2013-03-24 18:40:00,28.1,25.3,30.05,NNW,330,3.0,4.0,89,0.00,,,0.01,Wunderground v.1.15,2013-03-24 23:40:00,
2013-03-24 18:42:00,28.1,25.3,30.05,NW,315,6.0,7.0,89,0.00,,,0.01,Wunderground v.1.15,2013-03-24 23:42:00,
2013-03-24 18:43:00,28.1,25.3,30.05,NW,315,6.0,7.0,89,0.00,,,0.01,Wunderground v.1.15,2013-03-24 23:43:00,
2013-03-24 18:45:00,28.1,25.3,30.05,NW,325,5.0,7.0,89,0.00,,,0.01,Wunderground v.1.15,2013-03-24 23:45:00,
2013-03-24 18:47:00,28.1,25.3,30.05,NW,306,4.0,7.0,89,0.00,,,0.01,Wunderground v.1.15,2013-03-24 23:47:00,
2013-03-24 18:48:00,28.1,25.3,30.05,NW,312,4.0,7.0,89,0.00,,,0.01,Wunderground v.1.15,2013-03-24 23:48:00,
2013-03-24 18:50:00,28.1,25.3,30.05,NW,315,5.0,5.0,89,0.00,,,0.01,Wunderground v.1.15,2013-03-24 23:50:00,
2013-03-24 18:52:00,28.0,25.2,30.05,NW,311,3.0,7.0,89,0.00,,,0.01,Wunderground v.1.15,2013-03-24 23:52:00,
2013-03-24 18:53:00,28.0,25.2,30.05,NW,324,4.0,7.0,89,0.00,,,0.01,Wunderground v.1.15,2013-03-24 23:53:00,
2013-03-24 18:55:00,28.0,25.2,30.05,NW,325,4.0,7.0,89,0.00,,,0.01,Wunderground v.1.15,2013-03-24 23:55:00,
2013-03-24 18:58:00,28.0,25.2,30.05,NW,325,4.0,7.0,89,0.00,,,0.01,Wunderground v.1.15,2013-03-24 23:58:00,
2013-03-24 19:00:00,28.0,25.2,30.05,NNW,327,7.0,7.0,89,0.00,,,0.01,Wunderground v.1.15,2013-03-25 00:00:00,
2013-03-24 19:03:00,28.0,25.2,30.05,NW,321,4.0,7.0,89,0.00,,,0.01,Wunderground v.1.15,2013-03-25 00:03:00,
2013-03-24 19:05:00,28.0,25.2,30.05,NNW,333,7.0,7.0,89,0.00,,,0.01,Wunderground v.1.15,2013-03-25 00:05:00,
2013-03-24 19:08:00,28.0,25.4,30.05,NNW,329,4.0,7.0,90,0.00,,,0.01,Wunderground v.1.15,2013-03-25 00:08:00,
2013-03-24 19:09:00,28.0,25.4,30.05,NW,317,3.0,7.0,90,0.00,,,0.01,Wunderground v.1.15,2013-03-25 00:09:00,
2013-03-24 19:10:00,28.0,25.4,30.05,NNW,329,5.0,6.0,90,0.00,,,0.01,Wunderground v.1.15,2013-03-25 00:10:00,
2013-03-24 19:13:00,28.0,25.4,30.05,WNW,298,3.0,6.0,90,0.00,,,0.01,Wunderground v.1.15,2013-03-25 00:13:00,
2013-03-24 19:14:00,28.0,25.4,30.05,NW,323,4.0,6.0,90,0.00,,,0.01,Wunderground v.1.15,2013-03-25 00:14:00,
2013-03-24 19:16:00,28.0,25.4,30.05,NW,304,3.0,6.0,90,0.00,,,0.01,Wunderground v.1.15,2013-03-25 00:16:00,
2013-03-24 19:19:00,27.9,25.3,30.06,NW,326,5.0,7.0,90,0.00,,,0.01,Wunderground v.1.15,2013-03-25 00:19:00,
2013-03-24 19:22:00,27.9,25.3,30.05,NW,321,3.0,5.0,90,0.00,,,0.01,Wunderground v.1.15,2013-03-25 00:22:00,
2013-03-24 19:24:00,27.9,25.3,30.06,NNW,334,4.0,5.0,90,0.00,,,0.01,Wunderground v.1.15,2013-03-25 00:24:00,
2013-03-24 19:27:00,27.9,25.3,30.06,NNW,329,2.0,5.0,90,0.00,,,0.01,Wunderground v.1.15,2013-03-25 00:27:00,
2013-03-24 19:29:00,27.9,25.3,30.06,NW,319,3.0,7.0,90,0.00,,,0.01,Wunderground v.1.15,2013-03-25 00:29:00,
2013-03-24 19:30:00,27.9,25.3,30.06,NW,318,4.0,4.0,90,0.00,,,0.01,Wunderground v.1.15,2013-03-25 00:30:00,
2013-03-24 19:32:00,27.9,25.3,30.06,NW,326,5.0,6.0,90,0.00,,,0.01,Wunderground v.1.15,2013-03-25 00:32:00,
2013-03-24 19:34:00,27.9,25.3,30.06,NW,323,4.0,6.0,90,0.00,,,0.01,Wunderground v.1.15,2013-03-25 00:34:00,
2013-03-24 19:35:00,27.9,25.3,30.06,NW,324,2.0,6.0,90,0.00,,,0.01,Wunderground v.1.15,2013-03-25 00:35:00,
2013-03-24 19:36:00,27.9,25.3,30.06,NW,313,4.0,6.0,90,0.00,,,0.01,Wunderground v.1.15,2013-03-25 00:36:00,
2013-03-24 19:37:00,27.9,25.3,30.06,NNW,331,4.0,6.0,90,0.00,,,0.01,Wunderground v.1.15,2013-03-25 00:37:00,
2013-03-24 19:39:00,28.0,25.4,30.06,NW,316,2.0,6.0,90,0.00,,,0.01,Wunderground v.1.15,2013-03-25 00:39:00,
2013-03-24 19:40:00,28.0,25.4,30.06,NW,323,3.0,4.0,90,0.00,,,0.01,Wunderground v.1.15,2013-03-25 00:40:00,
2013-03-24 19:41:00,28.0,25.4,30.06,NW,309,3.0,6.0,90,0.00,,,0.01,Wunderground v.1.15,2013-03-25 00:41:00,
2013-03-24 19:42:00,28.0,25.4,30.06,NNW,327,5.0,6.0,90,0.00,,,0.01,Wunderground v.1.15,2013-03-25 00:42:00,
2013-03-24 19:44:00,28.0,25.4,30.06,NW,323,4.0,6.0,90,0.00,,,0.01,Wunderground v.1.15,2013-03-25 00:44:00,
2013-03-24 19:45:00,28.0,25.4,30.06,WNW,293,1.0,6.0,90,0.00,,,0.01,Wunderground v.1.15,2013-03-25 00:45:00,
2013-03-24 19:47:00,28.0,25.4,30.06,NW,320,3.0,6.0,90,0.00,,,0.01,Wunderground v.1.15,2013-03-25 00:47:00,
2013-03-24 19:48:00,28.0,25.4,30.06,NW,321,2.0,6.0,90,0.00,,,0.01,Wunderground v.1.15,2013-03-25 00:48:00,
2013-03-24 19:49:00,28.0,25.2,30.06,WNW,298,4.0,4.0,89,0.00,,,0.01,Wunderground v.1.15,2013-03-25 00:49:00,
2013-03-24 19:52:00,28.0,25.2,30.06,NNW,330,2.0,7.0,89,0.00,,,0.01,Wunderground v.1.15,2013-03-25 00:52:00,
2013-03-24 19:53:00,28.0,25.2,30.06,NNW,329,6.0,7.0,89,0.00,,,0.01,Wunderground v.1.15,2013-03-25 00:53:00,
2013-03-24 19:55:00,28.0,25.2,30.06,NW,319,4.0,7.0,89,0.00,,,0.01,Wunderground v.1.15,2013-03-25 00:55:00,
2013-03-24 19:58:00,28.0,25.2,30.06,NW,319,4.0,7.0,89,0.00,,,0.01,Wunderground v.1.15,2013-03-25 00:58:00,
2013-03-24 19:59:00,28.0,25.2,30.06,NNW,328,2.0,7.0,89,0.00,,,0.01,Wunderground v.1.15,2013-03-25 00:59:00,
2013-03-24 20:01:00,28.0,25.2,30.06,NW,308,2.0,6.0,89,0.00,,,0.01,Wunderground v.1.15,2013-03-25 01:01:00,
2013-03-24 20:03:00,28.0,25.2,30.06,NNW,334,3.0,6.0,89,0.00,,,0.01,Wunderground v.1.15,2013-03-25 01:03:00,
2013-03-24 20:04:00,28.0,25.2,30.06,NW,310,2.0,6.0,89,0.00,,,0.01,Wunderground v.1.15,2013-03-25 01:04:00,
2013-03-24 20:06:00,28.0,25.2,30.06,NW,310,2.0,7.0,89,0.00,,,0.01,Wunderground v.1.15,2013-03-25 01:06:00,
2013-03-24 20:09:00,28.1,25.3,30.07,NW,319,3.0,7.0,89,0.00,,,0.01,Wunderground v.1.15,2013-03-25 01:09:00,
2013-03-24 20:12:00,28.0,25.2,30.06,NW,322,5.0,6.0,89,0.00,,,0.01,Wunderground v.1.15,2013-03-25 01:12:00,
2013-03-24 20:14:00,28.1,25.3,30.07,NW,313,7.0,7.0,89,0.00,,,0.01,Wunderground v.1.15,2013-03-25 01:14:00,
2013-03-24 20:15:00,28.1,25.3,30.07,NNW,333,5.0,7.0,89,0.00,,,0.01,Wunderground v.1.15,2013-03-25 01:15:00,
2013-03-24 20:16:00,28.1,25.3,30.06,NW,319,4.0,8.0,89,0.00,,,0.01,Wunderground v.1.15,2013-03-25 01:16:00,
2013-03-24 20:17:00,28.1,25.3,30.07,NNW,334,4.0,8.0,89,0.00,,,0.01,Wunderground v.1.15,2013-03-25 01:17:00,
2013-03-24 20:19:00,28.1,25.3,30.07,NNW,336,3.0,4.0,89,0.00,,,0.01,Wunderground v.1.15,2013-03-25 01:19:00,
2013-03-24 20:20:00,28.1,25.3,30.07,NW,318,3.0,5.0,89,0.00,,,0.01,Wunderground v.1.15,2013-03-25 01:20:00,
2013-03-24 20:21:00,28.1,25.3,30.07,NW,313,6.0,6.0,89,0.00,,,0.01,Wunderground v.1.15,2013-03-25 01:21:00,
2013-03-24 20:23:00,28.1,25.3,30.07,NW,325,5.0,6.0,89,0.00,,,0.01,Wunderground v.1.15,2013-03-25 01:23:00,
2013-03-24 20:24:00,28.1,25.3,30.07,NW,325,5.0,6.0,89,0.00,,,0.01,Wunderground v.1.15,2013-03-25 01:24:00,
2013-03-24 20:25:00,28.2,25.4,30.07,NNW,327,5.0,6.0,89,0.00,,,0.01,Wunderground v.1.15,2013-03-25 01:25:00,
2013-03-24 20:26:00,28.2,25.4,30.07,NW,312,2.0,8.0,89,0.00,,,0.01,Wunderground v.1.15,2013-03-25 01:26:00,
2013-03-24 20:28:00,28.1,25.3,30.07,NW,316,4.0,8.0,89,0.00,,,0.01,Wunderground v.1.15,2013-03-25 01:28:00,
2013-03-24 20:29:00,28.2,25.4,30.07,NW,319,2.0,4.0,89,0.00,,,0.01,Wunderground v.1.15,2013-03-25 01:29:00,
2013-03-24 20:30:00,28.2,25.6,30.07,NW,321,4.0,5.0,90,0.00,,,0.01,Wunderground v.1.15,2013-03-25 01:30:00,
2013-03-24 20:31:00,28.2,25.6,30.07,NW,314,5.0,7.0,90,0.00,,,0.01,Wunderground v.1.15,2013-03-25 01:31:00,
2013-03-24 20:33:00,28.2,25.6,30.07,NW,323,6.0,7.0,90,0.00,,,0.01,Wunderground v.1.15,2013-03-25 01:33:00,
2013-03-24 20:35:00,28.1,25.3,30.07,WNW,300,3.0,8.0,89,0.00,,,0.01,Wunderground v.1.15,2013-03-25 01:35:00,
2013-03-24 20:37:00,28.2,25.4,30.07,NW,316,3.0,8.0,89,0.00,,,0.01,Wunderground v.1.15,2013-03-25 01:37:00,
2013-03-24 20:38:00,28.2,25.4,30.07,NW,306,5.0,8.0,89,0.00,,,0.01,Wunderground v.1.15,2013-03-25 01:38:00,
2013-03-24 20:40:00,28.2,25.4,30.07,North,355,2.0,5.0,89,0.00,,,0.01,Wunderground v.1.15,2013-03-25 01:40:00,
2013-03-24 20:42:00,28.1,25.3,30.07,NW,320,3.0,8.0,89,0.00,,,0.01,Wunderground v.1.15,2013-03-25 01:42:00,
2013-03-24 20:43:00,28.2,25.4,30.07,NW,313,5.0,8.0,89,0.00,,,0.01,Wunderground v.1.15,2013-03-25 01:43:00,
2013-03-24 20:46:00,28.2,25.4,30.07,NNW,329,9.0,9.0,89,0.00,,,0.01,Wunderground v.1.15,2013-03-25 01:46:00,
2013-03-24 20:47:00,28.1,25.3,30.07,NW,321,6.0,9.0,89,0.00,,,0.01,Wunderground v.1.15,2013-03-25 01:47:00,
2013-03-24 20:49:00,28.2,25.4,30.07,NW,313,4.0,9.0,89,0.00,,,0.01,Wunderground v.1.15,2013-03-25 01:49:00,
2013-03-24 20:51:00,28.1,25.3,30.07,NW,315,4.0,5.0,89,0.00,,,0.01,Wunderground v.1.15,2013-03-25 01:51:00,
2013-03-24 20:52:00,28.1,25.3,30.07,NW,325,5.0,5.0,89,0.00,,,0.01,Wunderground v.1.15,2013-03-25 01:52:00,
2013-03-24 20:54:00,28.1,25.5,30.07,North,355,2.0,6.0,90,0.00,,,0.01,Wunderground v.1.15,2013-03-25 01:54:00,
2013-03-24 20:57:00,28.1,25.5,30.07,NW,319,4.0,7.0,90,0.00,,,0.01,Wunderground v.1.15,2013-03-25 01:57:00,
2013-03-24 20:59:00,28.0,25.4,30.07,NW,307,4.0,7.0,90,0.00,,,0.01,Wunderground v.1.15,2013-03-25 01:59:00,
2013-03-24 21:02:00,27.9,25.3,30.07,NW,319,5.0,9.0,90,0.00,,,0.01,Wunderground v.1.15,2013-03-25 02:02:00,
2013-03-24 21:04:00,27.9,25.3,30.07,NNW,329,3.0,9.0,90,0.00,,,0.01,Wunderground v.1.15,2013-03-25 02:04:00,
2013-03-24 21:07:00,27.8,25.5,30.07,NW,322,4.0,9.0,91,0.00,,,0.01,Wunderground v.1.15,2013-03-25 02:07:00,
2013-03-24 21:09:00,27.8,25.5,30.07,NW,317,5.0,5.0,91,0.00,,,0.01,Wunderground v.1.15,2013-03-25 02:09:00,
2013-03-24 21:12:00,27.8,25.5,30.08,NW,319,4.0,7.0,91,0.00,,,0.01,Wunderground v.1.15,2013-03-25 02:12:00,
2013-03-24 21:13:00,27.8,25.5,30.08,NW,323,4.0,7.0,91,0.00,,,0.01,Wunderground v.1.15,2013-03-25 02:13:00,
2013-03-24 21:15:00,27.8,25.5,30.08,NNW,330,4.0,7.0,91,0.00,,,0.01,Wunderground v.1.15,2013-03-25 02:15:00,
2013-03-24 21:17:00,27.8,25.5,30.08,NW,323,5.0,7.0,91,0.00,,,0.01,Wunderground v.1.15,2013-03-25 02:17:00,
2013-03-24 21:18:00,27.8,25.5,30.08,NW,319,3.0,7.0,91,0.00,,,0.01,Wunderground v.1.15,2013-03-25 02:18:00,
2013-03-24 21:20:00,27.8,25.5,30.08,NW,325,2.0,5.0,91,0.00,,,0.01,Wunderground v.1.15,2013-03-25 02:20:00,
2013-03-24 21:22:00,27.8,25.5,30.08,NW,325,2.0,6.0,91,0.00,,,0.01,Wunderground v.1.15,2013-03-25 02:22:00,
2013-03-24 21:23:00,27.8,25.5,30.08,NW,323,5.0,6.0,91,0.00,,,0.01,Wunderground v.1.15,2013-03-25 02:23:00,
2013-03-24 21:26:00,27.8,25.5,30.08,NNW,329,5.0,8.0,91,0.00,,,0.01,Wunderground v.1.15,2013-03-25 02:26:00,
2013-03-24 21:27:00,27.8,25.5,30.08,NNW,327,5.0,8.0,91,0.00,,,0.01,Wunderground v.1.15,2013-03-25 02:27:00,
2013-03-24 21:28:00,27.8,25.5,30.08,NNW,332,4.0,8.0,91,0.00,,,0.01,Wunderground v.1.15,2013-03-25 02:28:00,
2013-03-24 21:31:00,27.8,25.5,30.08,NNW,329,3.0,5.0,91,0.00,,,0.01,Wunderground v.1.15,2013-03-25 02:31:00,
2013-03-24 21:32:00,27.8,25.5,30.08,North,9,4.0,5.0,91,0.00,,,0.01,Wunderground v.1.15,2013-03-25 02:32:00,
2013-03-24 21:33:00,27.8,25.5,30.08,NW,321,4.0,5.0,91,0.00,,,0.01,Wunderground v.1.15,2013-03-25 02:33:00,
2013-03-24 21:34:00,27.8,25.5,30.08,NNW,336,3.0,5.0,91,0.00,,,0.01,Wunderground v.1.15,2013-03-25 02:34:00,
2013-03-24 21:37:00,27.8,25.5,30.08,NW,323,2.0,5.0,91,0.00,,,0.01,Wunderground v.1.15,2013-03-25 02:37:00,
2013-03-24 21:38:00,27.8,25.5,30.08,NW,323,2.0,5.0,91,0.00,,,0.01,Wunderground v.1.15,2013-03-25 02:38:00,
2013-03-24 21:39:00,27.8,25.5,30.08,NW,323,3.0,5.0,91,0.00,,,0.01,Wunderground v.1.15,2013-03-25 02:39:00,
2013-03-24 21:43:00,27.8,25.5,30.08,North,355,2.0,4.0,91,0.00,,,0.01,Wunderground v.1.15,2013-03-25 02:43:00,
2013-03-24 21:44:00,27.9,25.6,30.08,NW,313,3.0,4.0,91,0.00,,,0.01,Wunderground v.1.15,2013-03-25 02:44:00,
2013-03-24 21:48:00,27.9,25.9,30.08,North,355,1.0,6.0,92,0.00,,,0.01,Wunderground v.1.15,2013-03-25 02:48:00,
2013-03-24 21:49:00,27.9,25.9,30.08,NNW,332,3.0,3.0,92,0.00,,,0.01,Wunderground v.1.15,2013-03-25 02:49:00,
2013-03-24 21:53:00,27.9,25.9,30.08,NNW,342,0.0,6.0,92,0.00,,,0.01,Wunderground v.1.15,2013-03-25 02:53:00,
2013-03-24 21:54:00,27.8,25.8,30.08,NNW,342,0.0,6.0,92,0.00,,,0.01,Wunderground v.1.15,2013-03-25 02:54:00,
2013-03-24 21:58:00,27.8,25.8,30.08,NNW,332,2.0,6.0,92,0.00,,,0.01,Wunderground v.1.15,2013-03-25 02:58:00,
2013-03-24 21:59:00,27.8,25.8,30.08,NE,49,0.0,6.0,92,0.00,,,0.01,Wunderground v.1.15,2013-03-25 02:59:00,
2013-03-24 22:00:00,27.9,25.9,30.08,NE,46,0.0,2.0,92,0.00,,,0.01,Wunderground v.1.15,2013-03-25 03:00:00,
2013-03-24 22:03:00,27.8,25.8,30.08,NNW,331,2.0,3.0,92,0.00,,,0.01,Wunderground v.1.15,2013-03-25 03:03:00,
2013-03-24 22:04:00,27.8,25.8,30.08,NW,318,2.0,8.0,92,0.00,,,0.01,Wunderground v.1.15,2013-03-25 03:04:00,
2013-03-24 22:05:00,27.8,25.8,30.08,NNW,337,1.0,8.0,92,0.00,,,0.01,Wunderground v.1.15,2013-03-25 03:05:00,
2013-03-24 22:08:00,27.8,25.8,30.08,North,355,2.0,8.0,92,0.00,,,0.01,Wunderground v.1.15,2013-03-25 03:08:00,
2013-03-24 22:09:00,27.8,25.8,30.08,North,355,1.0,8.0,92,0.00,,,0.01,Wunderground v.1.15,2013-03-25 03:09:00,
2013-03-24 22:10:00,27.8,25.8,30.09,North,355,1.0,2.0,92,0.00,,,0.01,Wunderground v.1.15,2013-03-25 03:10:00,
2013-03-24 22:13:00,27.8,25.8,30.09,North,355,0.0,3.0,92,0.00,,,0.01,Wunderground v.1.15,2013-03-25 03:13:00,
2013-03-24 22:14:00,27.8,25.8,30.09,North,355,1.0,3.0,92,0.00,,,0.01,Wunderground v.1.15,2013-03-25 03:14:00,
2013-03-24 22:16:00,27.7,25.7,30.09,North,355,0.0,3.0,92,0.00,,,0.01,Wunderground v.1.15,2013-03-25 03:16:00,
2013-03-24 22:19:00,27.7,25.7,30.09,North,360,1.0,4.0,92,0.00,,,0.01,Wunderground v.1.15,2013-03-25 03:19:00,
2013-03-24 22:22:00,27.7,25.7,30.09,North,360,4.0,4.0,92,0.00,,,0.01,Wunderground v.1.15,2013-03-25 03:22:00,
2013-03-24 22:24:00,27.7,25.7,30.09,North,360,1.0,4.0,92,0.00,,,0.01,Wunderground v.1.15,2013-03-25 03:24:00,
2013-03-24 22:25:00,27.7,25.7,30.09,NNE,18,3.0,5.0,92,0.00,,,0.01,Wunderground v.1.15,2013-03-25 03:25:00,
2013-03-24 22:27:00,27.7,25.9,30.09,NNW,344,2.0,5.0,93,0.00,,,0.01,Wunderground v.1.15,2013-03-25 03:27:00,
2013-03-24 22:29:00,27.7,25.9,30.09,North,350,1.0,5.0,93,0.00,,,0.01,Wunderground v.1.15,2013-03-25 03:29:00,
2013-03-24 22:30:00,27.7,25.7,30.09,North,355,2.0,2.0,92,0.00,,,0.01,Wunderground v.1.15,2013-03-25 03:30:00,
2013-03-24 22:31:00,27.7,25.9,30.09,NNW,330,1.0,2.0,93,0.00,,,0.01,Wunderground v.1.15,2013-03-25 03:31:00,
2013-03-24 22:33:00,27.7,25.7,30.09,NNW,340,2.0,2.0,92,0.00,,,0.01,Wunderground v.1.15,2013-03-25 03:33:00,
2013-03-24 22:34:00,27.7,25.7,30.08,NNW,340,2.0,2.0,92,0.00,,,0.01,Wunderground v.1.15,2013-03-25 03:34:00,
2013-03-24 22:35:00,27.7,25.7,30.09,East,81,2.0,3.0,92,0.00,,,0.01,Wunderground v.1.15,2013-03-25 03:35:00,
2013-03-24 22:37:00,27.7,25.9,30.09,NE,51,2.0,3.0,93,0.00,,,0.01,Wunderground v.1.15,2013-03-25 03:37:00,
2013-03-24 22:38:00,27.7,25.9,30.08,NE,50,5.0,5.0,93,0.00,,,0.01,Wunderground v.1.15,2013-03-25 03:38:00,
2013-03-24 22:40:00,27.7,25.9,30.08,NNW,335,2.0,2.0,93,0.00,,,0.01,Wunderground v.1.15,2013-03-25 03:40:00,
2013-03-24 22:42:00,27.7,25.9,30.08,NNW,335,1.0,3.0,93,0.00,,,0.01,Wunderground v.1.15,2013-03-25 03:42:00,
2013-03-24 22:43:00,27.7,25.9,30.08,NNW,333,3.0,5.0,93,0.00,,,0.01,Wunderground v.1.15,2013-03-25 03:43:00,
2013-03-24 22:45:00,27.7,25.9,30.08,NNW,333,1.0,5.0,93,0.00,,,0.01,Wunderground v.1.15,2013-03-25 03:45:00,
2013-03-24 22:47:00,27.7,25.9,30.09,NNW,333,0.0,5.0,93,0.00,,,0.01,Wunderground v.1.15,2013-03-25 03:47:00,
2013-03-24 22:49:00,27.7,25.9,30.08,NNW,333,2.0,5.0,93,0.00,,,0.01,Wunderground v.1.15,2013-03-25 03:49:00,
2013-03-24 22:50:00,27.7,25.9,30.08,NNW,333,0.0,1.0,93,0.00,,,0.01,Wunderground v.1.15,2013-03-25 03:50:00,
2013-03-24 22:52:00,27.7,25.9,30.08,NNW,340,0.0,3.0,93,0.00,,,0.01,Wunderground v.1.15,2013-03-25 03:52:00,
2013-03-24 22:54:00,27.7,25.9,30.08,NNW,339,0.0,3.0,93,0.00,,,0.01,Wunderground v.1.15,2013-03-25 03:54:00,
2013-03-24 22:55:00,27.8,26.0,30.08,NNE,17,3.0,6.0,93,0.00,,,0.01,Wunderground v.1.15,2013-03-25 03:55:00,
2013-03-24 22:58:00,27.7,25.9,30.08,NNW,328,2.0,6.0,93,0.00,,,0.01,Wunderground v.1.15,2013-03-25 03:58:00,
2013-03-24 22:59:00,27.8,26.0,30.08,NNE,14,4.0,7.0,93,0.00,,,0.01,Wunderground v.1.15,2013-03-25 03:59:00,
2013-03-24 23:00:00,27.8,26.0,30.08,NNE,17,1.0,3.0,93,0.00,,,0.01,Wunderground v.1.15,2013-03-25 04:00:00,
2013-03-24 23:05:00,27.8,26.0,30.08,NNW,329,2.0,7.0,93,0.00,,,0.01,Wunderground v.1.15,2013-03-25 04:05:00,
2013-03-24 23:06:00,27.7,25.9,30.09,NNW,328,3.0,7.0,93,0.00,,,0.01,Wunderground v.1.15,2013-03-25 04:06:00,
2013-03-24 23:10:00,27.6,25.8,30.08,NNW,340,1.0,3.0,93,0.00,,,0.01,Wunderground v.1.15,2013-03-25 04:10:00,
2013-03-24 23:11:00,27.6,25.8,30.08,NNW,340,1.0,3.0,93,0.00,,,0.01,Wunderground v.1.15,2013-03-25 04:11:00,
2013-03-24 23:12:00,27.6,25.8,30.08,NNW,340,1.0,3.0,93,0.00,,,0.01,Wunderground v.1.15,2013-03-25 04:12:00,
2013-03-24 23:15:00,26.8,24.8,30.09,NW,325,4.0,8.0,92,0.00,,,0.01,Wunderground v.1.15,2013-03-25 04:15:00,
2013-03-24 23:17:00,26.7,24.7,30.09,North,355,3.0,8.0,92,0.00,,,0.01,Wunderground v.1.15,2013-03-25 04:17:00,
2013-03-24 23:20:00,26.5,24.8,30.09,NW,325,3.0,5.0,93,0.00,,,0.01,Wunderground v.1.15,2013-03-25 04:20:00,
2013-03-24 23:22:00,26.5,24.8,30.09,NNW,342,4.0,6.0,93,0.00,,,0.01,Wunderground v.1.15,2013-03-25 04:22:00,
2013-03-24 23:26:00,26.4,24.4,30.09,NW,324,2.0,6.0,92,0.00,,,0.01,Wunderground v.1.15,2013-03-25 04:26:00,
2013-03-24 23:27:00,26.3,24.6,30.09,NW,326,4.0,6.0,93,0.00,,,0.01,Wunderground v.1.15,2013-03-25 04:27:00,
2013-03-24 23:32:00,26.3,24.6,30.09,NNW,329,4.0,4.0,93,0.00,,,0.01,Wunderground v.1.15,2013-03-25 04:32:00,
2013-03-24 23:33:00,26.3,24.6,30.09,NNW,329,3.0,4.0,93,0.00,,,0.01,Wunderground v.1.15,2013-03-25 04:33:00,
2013-03-24 23:37:00,26.2,24.5,30.09,NNW,328,3.0,6.0,93,0.00,,,0.01,Wunderground v.1.15,2013-03-25 04:37:00,
2013-03-24 23:38:00,26.2,24.5,30.09,NNW,329,4.0,6.0,93,0.00,,,0.01,Wunderground v.1.15,2013-03-25 04:38:00,
2013-03-24 23:42:00,26.0,24.0,30.09,NW,319,6.0,9.0,92,0.00,,,0.01,Wunderground v.1.15,2013-03-25 04:42:00,
2013-03-24 23:43:00,26.0,24.0,30.09,NW,313,4.0,9.0,92,0.00,,,0.01,Wunderground v.1.15,2013-03-25 04:43:00,
2013-03-24 23:47:00,25.7,23.7,30.09,NNW,327,5.0,9.0,92,0.00,,,0.01,Wunderground v.1.15,2013-03-25 04:47:00,
2013-03-24 23:48:00,25.6,23.6,30.09,NNW,329,5.0,9.0,92,0.00,,,0.01,Wunderground v.1.15,2013-03-25 04:48:00,
2013-03-24 23:49:00,25.6,23.6,30.09,NW,323,5.0,9.0,92,0.00,,,0.01,Wunderground v.1.15,2013-03-25 04:49:00,
2013-03-24 23:52:00,25.6,23.6,30.09,NNW,329,4.0,7.0,92,0.00,,,0.01,Wunderground v.1.15,2013-03-25 04:52:00,
2013-03-24 23:53:00,25.5,23.5,30.09,NW,324,4.0,8.0,92,0.00,,,0.01,Wunderground v.1.15,2013-03-25 04:53:00,
2013-03-24 23:54:00,25.5,23.5,30.09,NW,318,5.0,8.0,92,0.00,,,0.01,Wunderground v.1.15,2013-03-25 04:54:00,
2013-03-24 23:55:00,25.5,23.5,30.09,NNW,329,5.0,8.0,92,0.00,,,0.01,Wunderground v.1.15,2013-03-25 04:55:00,
2013-03-24 23:57:00,25.4,23.4,30.09,NW,310,4.0,8.0,92,0.00,,,0.01,Wunderground v.1.15,2013-03-25 04:57:00,
2013-03-24 23:58:00,25.4,23.4,30.09,NNW,333,5.0,8.0,92,0.00,,,0.01,Wunderground v.1.15,2013-03-25 04:58:00,